Time,TemperatureF,DewpointF,PressureIn,WindDirection,WindDirectionDegrees,WindSpeedMPH,WindSpeedGustMPH,Humidity,HourlyPrecipIn,Conditions,Clouds,dailyrainin,SoftwareType,DateUTC
2013-08-04 00:00:00,58.4,56.4,29.98,WSW,257,0.0,0.0,93,0.00,,---,0.01,VWS V14.01,2013-08-04 05:00:00,
2013-08-04 00:02:00,58.6,56.6,29.98,WSW,257,0.0,0.0,93,0.00,,---,0.00,VWS V14.01,2013-08-04 05:02:00,
2013-08-04 00:05:00,58.6,56.6,29.98,WSW,257,0.0,0.0,93,0.00,,---,0.00,VWS V14.01,2013-08-04 05:05:00,
2013-08-04 00:06:00,58.7,56.7,29.98,WSW,257,0.0,0.0,93,0.00,,---,0.00,VWS V14.01,2013-08-04 05:06:00,
2013-08-04 00:09:00,58.7,56.7,29.98,WSW,257,0.0,0.0,93,0.00,,---,0.00,VWS V14.01,2013-08-04 05:09:00,
2013-08-04 00:11:00,58.7,56.7,29.98,WSW,257,0.0,0.0,93,0.00,,---,0.00,VWS V14.01,2013-08-04 05:11:00,
2013-08-04 00:12:00,58.7,57.0,29.98,WSW,257,0.0,0.0,94,0.00,,---,0.00,VWS V14.01,2013-08-04 05:12:00,
2013-08-04 00:13:00,58.7,57.0,29.98,WSW,257,0.0,0.0,94,0.00,,---,0.00,VWS V14.01,2013-08-04 05:13:00,
2013-08-04 00:15:00,58.7,57.0,29.98,WSW,257,0.0,0.0,94,0.00,,---,0.00,VWS V14.01,2013-08-04 05:15:00,
2013-08-04 00:16:00,58.7,57.0,29.98,WSW,257,0.0,0.0,94,0.00,,---,0.00,VWS V14.01,2013-08-04 05:16:00,
2013-08-04 00:18:00,58.7,57.0,29.98,WSW,257,0.0,0.0,94,0.00,,---,0.00,VWS V14.01,2013-08-04 05:18:00,
2013-08-04 00:21:00,58.7,57.0,29.98,WSW,257,0.0,0.0,94,0.00,,---,0.00,VWS V14.01,2013-08-04 05:21:00,
2013-08-04 00:22:00,58.7,57.0,29.98,WSW,257,0.0,0.0,94,0.00,,---,0.00,VWS V14.01,2013-08-04 05:22:00,
2013-08-04 00:23:00,58.7,57.0,29.98,WSW,257,0.0,0.0,94,0.00,,---,0.00,VWS V14.01,2013-08-04 05:23:00,
2013-08-04 00:24:00,58.7,57.0,29.98,WSW,257,0.0,0.0,94,0.00,,---,0.00,VWS V14.01,2013-08-04 05:24:00,
2013-08-04 00:28:00,58.6,56.9,29.98,WSW,257,0.0,0.0,94,0.00,,---,0.00,VWS V14.01,2013-08-04 05:28:00,
2013-08-04 00:29:00,58.6,56.9,29.98,WSW,257,0.0,0.0,94,0.00,,---,0.00,VWS V14.01,2013-08-04 05:29:00,
2013-08-04 00:31:00,58.6,56.9,29.98,WSW,257,0.0,0.0,94,0.00,,---,0.00,VWS V14.01,2013-08-04 05:31:00,
2013-08-04 00:35:00,58.6,56.9,29.98,WSW,257,0.0,0.0,94,0.00,,---,0.00,VWS V14.01,2013-08-04 05:35:00,
2013-08-04 00:36:00,58.4,56.7,29.98,WSW,257,0.0,0.0,94,0.00,,---,0.00,VWS V14.01,2013-08-04 05:36:00,
2013-08-04 00:39:00,58.4,56.7,29.98,WSW,257,0.0,0.0,94,0.00,,---,0.00,VWS V14.01,2013-08-04 05:39:00,
2013-08-04 00:40:00,58.4,56.7,29.98,WSW,257,0.0,0.0,94,0.00,,---,0.00,VWS V14.01,2013-08-04 05:40:00,
2013-08-04 00:44:00,58.4,56.7,29.98,WSW,257,0.0,0.0,94,0.00,,---,0.00,VWS V14.01,2013-08-04 05:44:00,
2013-08-04 00:45:00,58.4,56.7,29.98,WSW,257,0.0,0.0,94,0.00,,---,0.00,VWS V14.01,2013-08-04 05:45:00,
2013-08-04 00:47:00,58.3,56.9,29.98,WSW,257,0.0,0.0,95,0.00,,---,0.00,VWS V14.01,2013-08-04 05:47:00,
2013-08-04 00:48:00,58.3,56.9,29.98,WSW,257,0.0,0.0,95,0.00,,---,0.00,VWS V14.01,2013-08-04 05:48:00,
2013-08-04 00:49:00,58.3,56.9,29.98,WSW,257,0.0,0.0,95,0.00,,---,0.00,VWS V14.01,2013-08-04 05:49:00,
2013-08-04 00:51:00,58.3,56.9,29.98,WSW,257,0.0,0.0,95,0.00,,---,0.00,VWS V14.01,2013-08-04 05:51:00,
2013-08-04 00:53:00,58.1,56.7,29.98,WSW,257,0.0,0.0,95,0.00,,---,0.00,VWS V14.01,2013-08-04 05:53:00,
2013-08-04 00:56:00,58.1,56.7,29.98,WSW,257,0.0,0.0,95,0.00,,---,0.00,VWS V14.01,2013-08-04 05:56:00,
2013-08-04 00:58:00,58.1,56.7,29.98,WSW,257,0.0,0.0,95,0.00,,---,0.00,VWS V14.01,2013-08-04 05:58:00,
2013-08-04 00:59:00,58.0,56.6,29.98,WSW,257,0.0,0.0,95,0.00,,---,0.00,VWS V14.01,2013-08-04 05:59:00,
2013-08-04 01:01:00,58.0,56.6,29.99,WSW,257,0.0,0.0,95,0.00,,---,0.00,VWS V14.01,2013-08-04 06:01:00,
2013-08-04 01:03:00,58.0,56.6,29.99,WSW,257,0.0,0.0,95,0.00,,---,0.00,VWS V14.01,2013-08-04 06:03:00,
2013-08-04 01:04:00,58.0,56.6,29.99,WSW,257,0.0,0.0,95,0.00,,---,0.00,VWS V14.01,2013-08-04 06:04:00,
2013-08-04 01:06:00,58.0,56.6,29.99,WSW,257,0.0,0.0,95,0.00,,---,0.00,VWS V14.01,2013-08-04 06:06:00,
2013-08-04 01:07:00,58.0,56.6,29.99,WSW,257,0.0,0.0,95,0.00,,---,0.00,VWS V14.01,2013-08-04 06:07:00,
2013-08-04 01:10:00,57.8,56.4,29.99,WSW,257,0.0,0.0,95,0.00,,---,0.00,VWS V14.01,2013-08-04 06:10:00,
2013-08-04 01:11:00,57.8,56.4,29.99,WSW,257,0.0,0.0,95,0.00,,---,0.00,VWS V14.01,2013-08-04 06:11:00,
2013-08-04 01:15:00,57.6,56.2,29.99,WSW,257,0.0,0.0,95,0.00,,---,0.00,VWS V14.01,2013-08-04 06:15:00,
2013-08-04 01:16:00,57.6,56.2,29.99,WSW,257,0.0,0.0,95,0.00,,---,0.00,VWS V14.01,2013-08-04 06:16:00,
2013-08-04 01:20:00,57.6,56.2,29.99,WSW,257,0.0,0.0,95,0.00,,---,0.00,VWS V14.01,2013-08-04 06:20:00,
2013-08-04 01:21:00,57.5,56.1,29.99,WSW,257,0.0,0.0,95,0.00,,---,0.00,VWS V14.01,2013-08-04 06:21:00,
2013-08-04 01:24:00,57.5,56.1,29.99,WSW,257,0.0,0.0,95,0.00,,---,0.00,VWS V14.01,2013-08-04 06:24:00,
2013-08-04 01:25:00,57.5,56.1,29.99,WSW,257,0.0,0.0,95,0.00,,---,0.00,VWS V14.01,2013-08-04 06:25:00,
2013-08-04 01:27:00,57.5,56.1,29.99,WSW,257,0.0,0.0,95,0.00,,---,0.00,VWS V14.01,2013-08-04 06:27:00,
2013-08-04 01:29:00,57.5,56.1,29.99,WSW,257,0.0,0.0,95,0.00,,---,0.00,VWS V14.01,2013-08-04 06:29:00,
2013-08-04 01:30:00,57.5,56.1,29.99,WSW,257,0.0,0.0,95,0.00,,---,0.00,VWS V14.01,2013-08-04 06:30:00,
2013-08-04 01:33:00,57.3,55.9,29.99,WSW,257,0.0,0.0,95,0.00,,---,0.00,VWS V14.01,2013-08-04 06:33:00,
2013-08-04 01:34:00,57.3,55.9,29.99,WSW,257,0.0,0.0,95,0.00,,---,0.00,VWS V14.01,2013-08-04 06:34:00,
2013-08-04 01:36:00,57.3,55.9,29.99,WSW,257,0.0,0.0,95,0.00,,---,0.00,VWS V14.01,2013-08-04 06:36:00,
2013-08-04 01:37:00,57.3,55.9,29.99,WSW,257,0.0,0.0,95,0.00,,---,0.00,VWS V14.01,2013-08-04 06:37:00,
2013-08-04 01:39:00,57.3,55.9,29.99,WSW,257,0.0,0.0,95,0.00,,---,0.00,VWS V14.01,2013-08-04 06:39:00,
2013-08-04 01:41:00,57.2,55.8,29.99,WSW,257,0.0,0.0,95,0.00,,---,0.00,VWS V14.01,2013-08-04 06:41:00,
2013-08-04 01:42:00,57.2,55.8,29.99,WSW,257,0.0,0.0,95,0.00,,---,0.00,VWS V14.01,2013-08-04 06:42:00,
2013-08-04 01:44:00,57.2,55.8,29.99,WSW,257,0.0,0.0,95,0.00,,---,0.00,VWS V14.01,2013-08-04 06:44:00,
2013-08-04 01:48:00,57.2,56.1,30.00,WSW,257,0.0,0.0,96,0.00,,---,0.00,VWS V14.01,2013-08-04 06:48:00,
2013-08-04 01:49:00,57.2,56.1,30.00,WSW,257,0.0,0.0,96,0.00,,---,0.00,VWS V14.01,2013-08-04 06:49:00,
2013-08-04 01:51:00,57.0,55.9,30.00,WSW,257,0.0,0.0,96,0.00,,---,0.00,VWS V14.01,2013-08-04 06:51:00,
2013-08-04 01:55:00,57.0,55.9,30.00,WSW,257,0.0,0.0,96,0.00,,---,0.00,VWS V14.01,2013-08-04 06:55:00,
2013-08-04 01:56:00,57.0,55.9,30.00,WSW,257,0.0,0.0,96,0.00,,---,0.00,VWS V14.01,2013-08-04 06:56:00,
2013-08-04 01:57:00,57.0,55.9,30.00,WSW,257,0.0,0.0,96,0.00,,---,0.00,VWS V14.01,2013-08-04 06:57:00,
2013-08-04 01:58:00,57.0,55.9,30.00,WSW,257,0.0,0.0,96,0.00,,---,0.00,VWS V14.01,2013-08-04 06:58:00,
2013-08-04 01:59:00,57.0,55.9,30.00,WSW,257,0.0,0.0,96,0.00,,---,0.00,VWS V14.01,2013-08-04 06:59:00,
2013-08-04 02:02:00,57.0,55.9,30.00,WSW,257,0.0,0.0,96,0.00,,---,0.00,VWS V14.01,2013-08-04 07:02:00,
2013-08-04 02:03:00,57.0,55.9,30.00,WSW,257,0.0,0.0,96,0.00,,---,0.00,VWS V14.01,2013-08-04 07:03:00,
2013-08-04 02:05:00,56.9,55.8,30.00,WSW,257,0.0,0.0,96,0.00,,---,0.00,VWS V14.01,2013-08-04 07:05:00,
2013-08-04 02:06:00,56.9,55.8,30.00,WSW,257,0.0,0.0,96,0.00,,---,0.00,VWS V14.01,2013-08-04 07:06:00,
2013-08-04 02:07:00,56.9,55.8,30.00,WSW,257,0.0,0.0,96,0.00,,---,0.00,VWS V14.01,2013-08-04 07:07:00,
2013-08-04 02:09:00,56.9,55.8,30.00,WSW,257,0.0,0.0,96,0.00,,---,0.00,VWS V14.01,2013-08-04 07:09:00,
2013-08-04 02:10:00,56.9,55.8,30.00,WSW,257,0.0,0.0,96,0.00,,---,0.00,VWS V14.01,2013-08-04 07:10:00,
2013-08-04 02:13:00,56.9,55.8,30.00,WSW,257,0.0,0.0,96,0.00,,---,0.00,VWS V14.01,2013-08-04 07:13:00,
2013-08-04 02:15:00,56.7,55.6,30.00,WSW,257,0.0,0.0,96,0.00,,---,0.00,VWS V14.01,2013-08-04 07:15:00,
2013-08-04 02:18:00,56.7,55.6,30.00,WSW,257,0.0,0.0,96,0.00,,---,0.00,VWS V14.01,2013-08-04 07:18:00,
2013-08-04 02:20:00,56.7,55.6,30.00,WSW,257,0.0,0.0,96,0.00,,---,0.00,VWS V14.01,2013-08-04 07:20:00,
2013-08-04 02:21:00,56.7,55.6,30.00,WSW,257,0.0,0.0,96,0.00,,---,0.00,VWS V14.01,2013-08-04 07:21:00,
2013-08-04 02:22:00,56.7,55.6,30.00,WSW,257,0.0,0.0,96,0.00,,---,0.00,VWS V14.01,2013-08-04 07:22:00,
2013-08-04 02:24:00,56.7,55.6,30.00,WSW,257,0.0,0.0,96,0.00,,---,0.00,VWS V14.01,2013-08-04 07:24:00,
2013-08-04 02:25:00,56.7,55.6,30.00,WSW,257,0.0,0.0,96,0.00,,---,0.00,VWS V14.01,2013-08-04 07:25:00,
2013-08-04 02:27:00,56.6,55.5,30.00,WSW,257,0.0,0.0,96,0.00,,---,0.00,VWS V14.01,2013-08-04 07:27:00,
2013-08-04 02:29:00,56.6,55.5,30.00,WSW,257,0.0,0.0,96,0.00,,---,0.00,VWS V14.01,2013-08-04 07:29:00,
2013-08-04 02:30:00,56.6,55.5,30.00,WSW,257,0.0,0.0,96,0.00,,---,0.00,VWS V14.01,2013-08-04 07:30:00,
2013-08-04 02:31:00,56.6,55.5,30.00,WSW,257,0.0,0.0,96,0.00,,---,0.00,VWS V14.01,2013-08-04 07:31:00,
2013-08-04 02:32:00,56.6,55.5,30.00,WSW,257,0.0,0.0,96,0.00,,---,0.00,VWS V14.01,2013-08-04 07:32:00,
2013-08-04 02:34:00,56.6,55.5,30.00,WSW,257,0.0,0.0,96,0.00,,---,0.00,VWS V14.01,2013-08-04 07:34:00,
2013-08-04 02:37:00,56.6,55.5,30.00,WSW,257,0.0,0.0,96,0.00,,---,0.00,VWS V14.01,2013-08-04 07:37:00,
2013-08-04 02:38:00,56.6,55.5,30.00,WSW,257,0.0,0.0,96,0.00,,---,0.00,VWS V14.01,2013-08-04 07:38:00,
2013-08-04 02:39:00,56.6,55.5,30.00,WSW,257,0.0,0.0,96,0.00,,---,0.00,VWS V14.01,2013-08-04 07:39:00,
2013-08-04 02:42:00,56.6,55.5,30.00,WSW,257,0.0,0.0,96,0.00,,---,0.00,VWS V14.01,2013-08-04 07:42:00,
2013-08-04 02:44:00,56.5,55.4,30.00,WSW,257,0.0,0.0,96,0.00,,---,0.00,VWS V14.01,2013-08-04 07:44:00,
2013-08-04 02:45:00,56.5,55.4,30.00,WSW,257,0.0,0.0,96,0.00,,---,0.00,VWS V14.01,2013-08-04 07:45:00,
2013-08-04 02:47:00,56.5,55.4,30.00,WSW,257,0.0,0.0,96,0.00,,---,0.00,VWS V14.01,2013-08-04 07:47:00,
2013-08-04 02:48:00,56.5,55.4,30.00,WSW,257,0.0,0.0,96,0.00,,---,0.00,VWS V14.01,2013-08-04 07:48:00,
2013-08-04 02:49:00,56.5,55.4,30.00,WSW,257,0.0,0.0,96,0.00,,---,0.00,VWS V14.01,2013-08-04 07:49:00,
2013-08-04 02:52:00,56.5,55.7,30.00,WSW,257,0.0,0.0,97,0.00,,---,0.00,VWS V14.01,2013-08-04 07:52:00,
2013-08-04 02:54:00,56.5,55.7,30.00,WSW,257,0.0,0.0,97,0.00,,---,0.00,VWS V14.01,2013-08-04 07:54:00,
2013-08-04 02:55:00,56.5,55.7,30.00,WSW,257,0.0,0.0,97,0.00,,---,0.00,VWS V14.01,2013-08-04 07:55:00,
2013-08-04 02:57:00,56.5,55.7,30.00,WSW,257,0.0,0.0,97,0.00,,---,0.00,VWS V14.01,2013-08-04 07:57:00,
2013-08-04 02:58:00,56.5,55.7,30.00,WSW,257,0.0,0.0,97,0.00,,---,0.00,VWS V14.01,2013-08-04 07:58:00,
2013-08-04 03:01:00,56.5,55.7,30.00,WSW,257,0.0,0.0,97,0.00,,---,0.00,VWS V14.01,2013-08-04 08:01:00,
2013-08-04 03:02:00,56.5,55.7,30.00,WSW,257,0.0,0.0,97,0.00,,---,0.00,VWS V14.01,2013-08-04 08:02:00,
2013-08-04 03:03:00,56.5,55.7,30.00,WSW,257,0.0,0.0,97,0.00,,---,0.00,VWS V14.01,2013-08-04 08:03:00,
2013-08-04 03:05:00,56.5,55.7,30.00,WSW,257,0.0,0.0,97,0.00,,---,0.00,VWS V14.01,2013-08-04 08:05:00,
2013-08-04 03:06:00,56.5,55.7,30.00,WSW,257,0.0,0.0,97,0.00,,---,0.00,VWS V14.01,2013-08-04 08:06:00,
2013-08-04 03:07:00,56.5,55.7,30.00,WSW,257,0.0,0.0,97,0.00,,---,0.00,VWS V14.01,2013-08-04 08:07:00,
2013-08-04 03:08:00,56.5,55.7,30.00,WSW,257,0.0,0.0,97,0.00,,---,0.00,VWS V14.01,2013-08-04 08:08:00,
2013-08-04 03:09:00,56.5,55.7,30.00,WSW,257,0.0,0.0,97,0.00,,---,0.00,VWS V14.01,2013-08-04 08:09:00,
2013-08-04 03:14:00,56.6,55.8,30.00,WSW,257,0.0,0.0,97,0.00,,---,0.00,VWS V14.01,2013-08-04 08:14:00,
2013-08-04 03:15:00,56.6,55.8,30.00,WSW,257,0.0,0.0,97,0.00,,---,0.00,VWS V14.01,2013-08-04 08:15:00,
2013-08-04 03:17:00,56.6,55.8,30.00,WSW,257,0.0,0.0,97,0.00,,---,0.00,VWS V14.01,2013-08-04 08:17:00,
2013-08-04 03:18:00,56.6,55.8,30.00,WSW,257,0.0,0.0,97,0.00,,---,0.00,VWS V14.01,2013-08-04 08:18:00,
2013-08-04 03:22:00,56.9,56.3,30.00,WSW,257,0.0,0.0,98,0.00,,---,0.00,VWS V14.01,2013-08-04 08:22:00,
2013-08-04 03:23:00,56.9,56.3,30.00,WSW,257,0.0,0.0,98,0.00,,---,0.00,VWS V14.01,2013-08-04 08:23:00,
2013-08-04 03:24:00,56.9,56.3,30.00,WSW,257,0.0,0.0,98,0.00,,---,0.00,VWS V14.01,2013-08-04 08:24:00,
2013-08-04 03:25:00,57.0,56.4,30.00,WSW,257,0.0,0.0,98,0.00,,---,0.00,VWS V14.01,2013-08-04 08:25:00,
2013-08-04 03:28:00,57.3,56.7,30.00,WSW,257,0.0,0.0,98,0.00,,---,0.00,VWS V14.01,2013-08-04 08:28:00,
2013-08-04 03:30:00,57.5,56.9,30.00,WSW,257,0.0,0.0,98,0.00,,---,0.00,VWS V14.01,2013-08-04 08:30:00,
2013-08-04 03:31:00,57.5,56.9,30.00,WSW,257,0.0,0.0,98,0.00,,---,0.00,VWS V14.01,2013-08-04 08:31:00,
2013-08-04 03:34:00,57.5,56.9,30.00,WSW,257,0.0,0.0,98,0.00,,---,0.00,VWS V14.01,2013-08-04 08:34:00,
2013-08-04 03:36:00,57.6,57.0,30.00,WSW,257,0.0,0.0,98,0.00,,---,0.00,VWS V14.01,2013-08-04 08:36:00,
2013-08-04 03:39:00,58.0,57.4,30.00,WSW,257,0.0,0.0,98,0.00,,---,0.00,VWS V14.01,2013-08-04 08:39:00,
2013-08-04 03:41:00,58.1,57.5,30.00,WSW,257,0.0,0.0,98,0.00,,---,0.00,VWS V14.01,2013-08-04 08:41:00,
2013-08-04 03:42:00,58.3,57.7,30.00,WSW,257,0.0,0.0,98,0.00,,---,0.00,VWS V14.01,2013-08-04 08:42:00,
2013-08-04 03:45:00,58.3,57.7,30.00,WSW,257,0.0,0.0,98,0.00,,---,0.00,VWS V14.01,2013-08-04 08:45:00,
2013-08-04 03:47:00,58.4,57.8,30.00,WSW,257,0.0,0.0,98,0.00,,---,0.00,VWS V14.01,2013-08-04 08:47:00,
2013-08-04 03:48:00,58.4,57.8,30.00,WSW,257,0.0,0.0,98,0.00,,---,0.00,VWS V14.01,2013-08-04 08:48:00,
2013-08-04 03:50:00,58.4,57.8,30.00,WSW,257,0.0,0.0,98,0.00,,---,0.00,VWS V14.01,2013-08-04 08:50:00,
2013-08-04 03:51:00,58.4,57.8,30.00,WSW,257,0.0,0.0,98,0.00,,---,0.00,VWS V14.01,2013-08-04 08:51:00,
2013-08-04 03:52:00,58.4,57.8,30.00,WSW,257,0.0,0.0,98,0.00,,---,0.00,VWS V14.01,2013-08-04 08:52:00,
2013-08-04 03:54:00,58.4,57.8,30.00,WSW,257,0.0,0.0,98,0.00,,---,0.00,VWS V14.01,2013-08-04 08:54:00,
2013-08-04 03:56:00,58.4,57.8,30.00,WSW,257,0.0,0.0,98,0.00,,---,0.00,VWS V14.01,2013-08-04 08:56:00,
2013-08-04 03:58:00,58.4,57.8,30.00,WSW,257,0.0,0.0,98,0.00,,---,0.00,VWS V14.01,2013-08-04 08:58:00,
2013-08-04 03:59:00,58.4,57.8,30.00,WSW,257,0.0,0.0,98,0.00,,---,0.00,VWS V14.01,2013-08-04 08:59:00,
2013-08-04 04:01:00,58.4,57.8,30.00,WSW,257,0.0,0.0,98,0.00,,---,0.00,VWS V14.01,2013-08-04 09:01:00,
2013-08-04 04:02:00,58.4,57.8,30.00,WSW,257,0.0,0.0,98,0.00,,---,0.00,VWS V14.01,2013-08-04 09:02:00,
2013-08-04 04:04:00,58.4,57.8,30.00,WSW,257,0.0,0.0,98,0.00,,---,0.00,VWS V14.01,2013-08-04 09:04:00,
2013-08-04 04:05:00,58.4,57.8,30.00,WSW,257,0.0,0.0,98,0.00,,---,0.00,VWS V14.01,2013-08-04 09:05:00,
2013-08-04 04:07:00,58.6,58.0,30.00,WSW,257,0.0,0.0,98,0.00,,---,0.00,VWS V14.01,2013-08-04 09:07:00,
2013-08-04 04:09:00,58.6,58.0,30.00,WSW,257,0.0,0.0,98,0.00,,---,0.00,VWS V14.01,2013-08-04 09:09:00,
2013-08-04 04:10:00,58.6,58.0,30.00,WSW,257,0.0,0.0,98,0.00,,---,0.00,VWS V14.01,2013-08-04 09:10:00,
2013-08-04 04:13:00,58.7,58.1,30.00,WSW,257,0.0,0.0,98,0.00,,---,0.00,VWS V14.01,2013-08-04 09:13:00,
2013-08-04 04:14:00,58.7,58.1,30.00,WSW,257,0.0,0.0,98,0.00,,---,0.00,VWS V14.01,2013-08-04 09:14:00,
2013-08-04 04:16:00,58.9,58.3,30.00,WSW,257,0.0,0.0,98,0.00,,---,0.00,VWS V14.01,2013-08-04 09:16:00,
2013-08-04 04:17:00,58.9,58.3,30.00,WSW,257,0.0,0.0,98,0.00,,---,0.00,VWS V14.01,2013-08-04 09:17:00,
2013-08-04 04:19:00,59.0,58.4,30.00,WSW,257,0.0,0.0,98,0.00,,---,0.00,VWS V14.01,2013-08-04 09:19:00,
2013-08-04 04:20:00,59.0,58.4,30.00,WSW,257,0.0,0.0,98,0.00,,---,0.00,VWS V14.01,2013-08-04 09:20:00,
2013-08-04 04:22:00,59.0,58.4,30.00,WSW,257,0.0,0.0,98,0.00,,---,0.00,VWS V14.01,2013-08-04 09:22:00,
2013-08-04 04:24:00,59.0,58.2,30.00,WSW,257,0.0,0.0,97,0.00,,---,0.00,VWS V14.01,2013-08-04 09:24:00,
2013-08-04 04:25:00,59.0,58.2,30.00,WSW,257,0.0,0.0,97,0.00,,---,0.00,VWS V14.01,2013-08-04 09:25:00,
2013-08-04 04:26:00,59.0,58.2,30.00,WSW,257,0.0,0.0,97,0.00,,---,0.00,VWS V14.01,2013-08-04 09:26:00,
2013-08-04 04:27:00,59.0,58.4,30.00,WSW,257,0.0,0.0,98,0.00,,---,0.00,VWS V14.01,2013-08-04 09:27:00,
2013-08-04 04:28:00,59.2,58.3,30.00,WSW,257,0.0,0.0,97,0.00,,---,0.00,VWS V14.01,2013-08-04 09:28:00,
2013-08-04 04:30:00,59.2,58.3,30.00,WSW,257,0.0,0.0,97,0.00,,---,0.00,VWS V14.01,2013-08-04 09:30:00,
2013-08-04 04:32:00,59.2,58.3,30.00,WSW,257,0.0,0.0,97,0.00,,---,0.00,VWS V14.01,2013-08-04 09:32:00,
2013-08-04 04:33:00,59.2,58.3,30.00,WSW,257,0.0,0.0,97,0.00,,---,0.00,VWS V14.01,2013-08-04 09:33:00,
2013-08-04 04:34:00,59.2,58.3,30.00,WSW,257,0.0,0.0,97,0.00,,---,0.00,VWS V14.01,2013-08-04 09:34:00,
2013-08-04 04:35:00,59.2,58.3,30.00,WSW,257,0.0,0.0,97,0.00,,---,0.00,VWS V14.01,2013-08-04 09:35:00,
2013-08-04 04:37:00,59.2,58.3,30.00,WSW,257,0.0,0.0,97,0.00,,---,0.00,VWS V14.01,2013-08-04 09:37:00,
2013-08-04 04:38:00,59.2,58.3,30.00,WSW,257,0.0,0.0,97,0.00,,---,0.00,VWS V14.01,2013-08-04 09:38:00,
2013-08-04 04:40:00,59.2,58.1,30.00,WSW,257,0.0,0.0,96,0.00,,---,0.00,VWS V14.01,2013-08-04 09:40:00,
2013-08-04 04:42:00,59.2,58.1,30.00,WSW,257,0.0,0.0,96,0.00,,---,0.00,VWS V14.01,2013-08-04 09:42:00,
2013-08-04 04:43:00,59.2,58.1,30.00,WSW,257,0.0,0.0,96,0.00,,---,0.00,VWS V14.01,2013-08-04 09:43:00,
2013-08-04 04:47:00,59.0,57.9,29.99,WSW,257,0.0,0.0,96,0.00,,---,0.00,VWS V14.01,2013-08-04 09:47:00,
2013-08-04 04:48:00,59.0,57.9,29.99,WSW,257,0.0,0.0,96,0.00,,---,0.00,VWS V14.01,2013-08-04 09:48:00,
2013-08-04 04:49:00,59.0,57.9,29.99,WSW,257,0.0,0.0,96,0.00,,---,0.00,VWS V14.01,2013-08-04 09:49:00,
2013-08-04 04:52:00,58.9,57.8,29.99,WSW,257,0.0,0.0,96,0.00,,---,0.00,VWS V14.01,2013-08-04 09:52:00,
2013-08-04 04:53:00,58.9,57.8,29.99,WSW,257,0.0,0.0,96,0.00,,---,0.00,VWS V14.01,2013-08-04 09:53:00,
2013-08-04 04:54:00,58.9,57.8,29.99,WSW,257,0.0,0.0,96,0.00,,---,0.00,VWS V14.01,2013-08-04 09:54:00,
2013-08-04 04:55:00,58.9,57.8,29.99,WSW,257,0.0,0.0,96,0.00,,---,0.00,VWS V14.01,2013-08-04 09:55:00,
2013-08-04 04:57:00,58.7,57.6,29.99,WSW,257,0.0,0.0,96,0.00,,---,0.00,VWS V14.01,2013-08-04 09:57:00,
2013-08-04 04:59:00,58.7,57.6,29.99,WSW,257,0.0,0.0,96,0.00,,---,0.00,VWS V14.01,2013-08-04 09:59:00,
2013-08-04 05:02:00,58.6,57.5,30.00,WSW,257,0.0,0.0,96,0.00,,---,0.00,VWS V14.01,2013-08-04 10:02:00,
2013-08-04 05:03:00,58.6,57.5,30.00,WSW,257,0.0,0.0,96,0.00,,---,0.00,VWS V14.01,2013-08-04 10:03:00,
2013-08-04 05:05:00,58.4,57.3,30.00,WSW,257,0.0,0.0,96,0.00,,---,0.00,VWS V14.01,2013-08-04 10:05:00,
2013-08-04 05:08:00,58.3,57.2,30.00,WSW,257,0.0,0.0,96,0.00,,---,0.00,VWS V14.01,2013-08-04 10:08:00,
2013-08-04 05:09:00,58.3,57.2,30.00,WSW,257,0.0,0.0,96,0.00,,---,0.00,VWS V14.01,2013-08-04 10:09:00,
2013-08-04 05:11:00,58.3,57.2,30.00,WSW,257,0.0,0.0,96,0.00,,---,0.00,VWS V14.01,2013-08-04 10:11:00,
2013-08-04 05:13:00,58.1,57.0,30.00,WSW,257,0.0,0.0,96,0.00,,---,0.00,VWS V14.01,2013-08-04 10:13:00,
2013-08-04 05:14:00,58.1,57.0,30.00,WSW,257,0.0,0.0,96,0.00,,---,0.00,VWS V14.01,2013-08-04 10:14:00,
2013-08-04 05:15:00,58.1,57.0,30.00,WSW,257,0.0,0.0,96,0.00,,---,0.00,VWS V14.01,2013-08-04 10:15:00,
2013-08-04 05:18:00,58.0,56.9,30.00,WSW,257,0.0,0.0,96,0.00,,---,0.00,VWS V14.01,2013-08-04 10:18:00,
2013-08-04 05:19:00,58.0,56.9,30.00,WSW,257,0.0,0.0,96,0.00,,---,0.00,VWS V14.01,2013-08-04 10:19:00,
2013-08-04 05:20:00,58.0,56.9,30.00,WSW,257,0.0,0.0,96,0.00,,---,0.00,VWS V14.01,2013-08-04 10:20:00,
2013-08-04 05:25:00,57.8,56.7,30.00,WSW,257,0.0,0.0,96,0.00,,---,0.00,VWS V14.01,2013-08-04 10:25:00,
2013-08-04 05:26:00,57.8,56.7,30.00,WSW,257,0.0,0.0,96,0.00,,---,0.00,VWS V14.01,2013-08-04 10:26:00,
2013-08-04 05:27:00,57.6,56.5,30.00,WSW,257,0.0,0.0,96,0.00,,---,0.00,VWS V14.01,2013-08-04 10:27:00,
2013-08-04 05:29:00,57.6,56.5,30.00,WSW,257,0.0,0.0,96,0.00,,---,0.00,VWS V14.01,2013-08-04 10:29:00,
2013-08-04 05:30:00,57.6,56.5,30.01,WSW,257,0.0,0.0,96,0.00,,---,0.00,VWS V14.01,2013-08-04 10:30:00,
2013-08-04 05:31:00,57.6,56.5,30.01,WSW,257,0.0,0.0,96,0.00,,---,0.00,VWS V14.01,2013-08-04 10:31:00,
2013-08-04 05:34:00,57.6,56.5,30.01,WSW,257,0.0,0.0,96,0.00,,---,0.00,VWS V14.01,2013-08-04 10:34:00,
2013-08-04 05:35:00,57.6,56.5,30.01,WSW,257,0.0,0.0,96,0.00,,---,0.00,VWS V14.01,2013-08-04 10:35:00,
2013-08-04 05:36:00,57.6,56.5,30.01,WSW,257,0.0,0.0,96,0.00,,---,0.00,VWS V14.01,2013-08-04 10:36:00,
2013-08-04 05:37:00,57.6,56.5,30.01,WSW,257,0.0,0.0,96,0.00,,---,0.00,VWS V14.01,2013-08-04 10:37:00,
2013-08-04 05:40:00,57.6,56.5,30.01,WSW,257,0.0,0.0,96,0.00,,---,0.00,VWS V14.01,2013-08-04 10:40:00,
2013-08-04 05:42:00,57.6,56.5,30.01,WSW,257,0.0,0.0,96,0.00,,---,0.00,VWS V14.01,2013-08-04 10:42:00,
2013-08-04 05:44:00,57.6,56.5,30.01,WSW,257,0.0,0.0,96,0.00,,---,0.00,VWS V14.01,2013-08-04 10:44:00,
2013-08-04 05:46:00,57.6,56.5,30.01,WSW,257,0.0,0.0,96,0.00,,---,0.00,VWS V14.01,2013-08-04 10:46:00,
2013-08-04 05:47:00,57.6,56.5,30.01,WSW,257,0.0,0.0,96,0.00,,---,0.00,VWS V14.01,2013-08-04 10:47:00,
2013-08-04 05:49:00,57.6,56.5,30.01,WSW,257,0.0,0.0,96,0.00,,---,0.00,VWS V14.01,2013-08-04 10:49:00,
2013-08-04 05:51:00,57.6,56.5,30.01,WSW,257,0.0,0.0,96,0.00,,---,0.00,VWS V14.01,2013-08-04 10:51:00,
2013-08-04 05:52:00,57.6,56.5,30.01,WSW,257,0.0,0.0,96,0.00,,---,0.00,VWS V14.01,2013-08-04 10:52:00,
2013-08-04 05:53:00,57.6,56.5,30.01,WSW,257,0.0,0.0,96,0.00,,---,0.00,VWS V14.01,2013-08-04 10:53:00,
2013-08-04 05:55:00,57.6,56.5,30.01,WSW,257,0.0,0.0,96,0.00,,---,0.00,VWS V14.01,2013-08-04 10:55:00,
2013-08-04 05:56:00,57.6,56.5,30.01,WSW,257,0.0,0.0,96,0.00,,---,0.00,VWS V14.01,2013-08-04 10:56:00,
2013-08-04 06:00:00,57.6,56.5,30.01,WSW,257,0.0,0.0,96,0.00,,---,0.00,VWS V14.01,2013-08-04 11:00:00,
2013-08-04 06:02:00,57.6,56.5,30.01,WSW,257,0.0,0.0,96,0.00,,---,0.00,VWS V14.01,2013-08-04 11:02:00,
2013-08-04 06:03:00,57.6,56.5,30.01,WSW,257,0.0,0.0,96,0.00,,---,0.00,VWS V14.01,2013-08-04 11:03:00,
2013-08-04 06:08:00,57.8,56.7,30.01,WSW,257,0.0,0.0,96,0.00,,---,0.00,VWS V14.01,2013-08-04 11:08:00,
2013-08-04 06:09:00,57.8,56.7,30.01,WSW,257,0.0,0.0,96,0.00,,---,0.00,VWS V14.01,2013-08-04 11:09:00,
2013-08-04 06:11:00,57.8,56.7,30.01,WSW,257,0.0,0.0,96,0.00,,---,0.00,VWS V14.01,2013-08-04 11:11:00,
2013-08-04 06:13:00,57.8,56.7,30.01,WSW,257,0.0,0.0,96,0.00,,---,0.00,VWS V14.01,2013-08-04 11:13:00,
2013-08-04 06:15:00,57.8,56.7,30.03,WSW,257,0.0,0.0,96,0.00,,---,0.00,VWS V14.01,2013-08-04 11:15:00,
2013-08-04 06:16:00,57.8,56.7,30.03,WSW,257,0.0,0.0,96,0.00,,---,0.00,VWS V14.01,2013-08-04 11:16:00,
2013-08-04 06:19:00,57.8,56.7,30.03,WSW,257,0.0,0.0,96,0.00,,---,0.00,VWS V14.01,2013-08-04 11:19:00,
2013-08-04 06:20:00,57.8,56.7,30.03,WSW,257,0.0,0.0,96,0.00,,---,0.00,VWS V14.01,2013-08-04 11:20:00,
2013-08-04 06:21:00,57.8,56.7,30.03,WSW,257,0.0,0.0,96,0.00,,---,0.00,VWS V14.01,2013-08-04 11:21:00,
2013-08-04 06:22:00,57.8,56.7,30.03,WSW,257,0.0,0.0,96,0.00,,---,0.00,VWS V14.01,2013-08-04 11:22:00,
2013-08-04 06:24:00,57.8,56.7,30.03,WSW,257,0.0,0.0,96,0.00,,---,0.00,VWS V14.01,2013-08-04 11:24:00,
2013-08-04 06:26:00,57.6,56.5,30.03,WSW,257,0.0,0.0,96,0.00,,---,0.00,VWS V14.01,2013-08-04 11:26:00,
2013-08-04 06:27:00,57.6,56.5,30.03,WSW,257,0.0,0.0,96,0.00,,---,0.00,VWS V14.01,2013-08-04 11:27:00,
2013-08-04 06:29:00,57.6,56.5,30.03,WSW,257,0.0,0.0,96,0.00,,---,0.00,VWS V14.01,2013-08-04 11:29:00,
2013-08-04 06:30:00,57.6,56.5,30.03,WSW,257,0.0,0.0,96,0.00,,---,0.00,VWS V14.01,2013-08-04 11:30:00,
2013-08-04 06:32:00,57.6,56.5,30.03,WSW,257,0.0,0.0,96,0.00,,---,0.00,VWS V14.01,2013-08-04 11:32:00,
2013-08-04 06:33:00,57.6,56.5,30.03,WSW,257,0.0,0.0,96,0.00,,---,0.00,VWS V14.01,2013-08-04 11:33:00,
2013-08-04 06:35:00,57.6,56.5,30.03,WSW,257,0.0,0.0,96,0.00,,---,0.00,VWS V14.01,2013-08-04 11:35:00,
2013-08-04 06:38:00,57.6,56.5,30.03,WSW,257,0.0,0.0,96,0.00,,---,0.00,VWS V14.01,2013-08-04 11:38:00,
2013-08-04 06:39:00,57.6,56.5,30.03,WSW,257,0.0,0.0,96,0.00,,---,0.00,VWS V14.01,2013-08-04 11:39:00,
2013-08-04 06:42:00,57.6,56.5,30.03,WSW,257,0.0,0.0,96,0.00,,---,0.00,VWS V14.01,2013-08-04 11:42:00,
2013-08-04 06:43:00,57.6,56.5,30.03,WSW,257,0.0,0.0,96,0.00,,---,0.00,VWS V14.01,2013-08-04 11:43:00,
2013-08-04 06:44:00,57.6,56.5,30.03,WSW,257,0.0,0.0,96,0.00,,---,0.00,VWS V14.01,2013-08-04 11:44:00,
2013-08-04 06:47:00,58.0,57.2,30.03,WSW,257,0.0,0.0,97,0.00,,---,0.00,VWS V14.01,2013-08-04 11:47:00,
2013-08-04 06:49:00,58.0,57.2,30.03,WSW,257,0.0,0.0,97,0.00,,---,0.00,VWS V14.01,2013-08-04 11:49:00,
2013-08-04 06:50:00,58.0,57.2,30.03,WSW,257,0.0,0.0,97,0.00,,---,0.00,VWS V14.01,2013-08-04 11:50:00,
2013-08-04 06:53:00,58.3,57.5,30.03,WSW,257,0.0,0.0,97,0.00,,---,0.00,VWS V14.01,2013-08-04 11:53:00,
2013-08-04 06:55:00,58.3,57.5,30.03,WSW,257,0.0,0.0,97,0.00,,---,0.00,VWS V14.01,2013-08-04 11:55:00,
2013-08-04 06:57:00,58.3,57.5,30.03,WSW,257,0.0,0.0,97,0.00,,---,0.00,VWS V14.01,2013-08-04 11:57:00,
2013-08-04 06:58:00,58.3,57.5,30.03,WSW,257,0.0,0.0,97,0.00,,---,0.00,VWS V14.01,2013-08-04 11:58:00,
2013-08-04 07:00:00,58.4,57.6,30.03,WSW,257,0.0,0.0,97,0.00,,---,0.00,VWS V14.01,2013-08-04 12:00:00,
2013-08-04 07:02:00,58.4,57.6,30.03,WSW,257,0.0,0.0,97,0.00,,---,0.00,VWS V14.01,2013-08-04 12:02:00,
2013-08-04 07:05:00,58.6,57.8,30.03,WSW,257,0.0,0.0,97,0.00,,---,0.00,VWS V14.01,2013-08-04 12:05:00,
2013-08-04 07:06:00,58.6,57.8,30.03,WSW,257,0.0,0.0,97,0.00,,---,0.00,VWS V14.01,2013-08-04 12:06:00,
2013-08-04 07:08:00,58.6,57.8,30.03,WSW,257,0.0,0.0,97,0.00,,---,0.00,VWS V14.01,2013-08-04 12:08:00,
2013-08-04 07:10:00,58.7,57.8,30.03,WSW,257,0.0,0.0,97,0.00,,---,0.00,VWS V14.01,2013-08-04 12:10:00,
2013-08-04 07:12:00,58.7,57.8,30.03,WSW,257,0.0,0.0,97,0.00,,---,0.00,VWS V14.01,2013-08-04 12:12:00,
2013-08-04 07:13:00,58.7,57.8,30.03,WSW,257,0.0,0.0,97,0.00,,---,0.00,VWS V14.01,2013-08-04 12:13:00,
2013-08-04 07:15:00,58.9,58.0,30.03,WSW,257,0.0,0.0,97,0.00,,---,0.00,VWS V14.01,2013-08-04 12:15:00,
2013-08-04 07:16:00,58.9,58.0,30.03,WSW,257,0.0,0.0,97,0.00,,---,0.00,VWS V14.01,2013-08-04 12:16:00,
2013-08-04 07:17:00,58.9,58.0,30.03,WSW,257,0.0,0.0,97,0.00,,---,0.00,VWS V14.01,2013-08-04 12:17:00,
2013-08-04 07:18:00,58.9,58.0,30.03,WSW,257,0.0,0.0,97,0.00,,---,0.00,VWS V14.01,2013-08-04 12:18:00,
2013-08-04 07:21:00,59.0,58.2,30.03,WSW,257,0.0,0.0,97,0.00,,---,0.00,VWS V14.01,2013-08-04 12:21:00,
2013-08-04 07:22:00,59.2,58.3,30.03,WSW,257,0.0,0.0,97,0.00,,---,0.00,VWS V14.01,2013-08-04 12:22:00,
2013-08-04 07:23:00,59.2,58.3,30.03,WSW,257,0.0,0.0,97,0.00,,---,0.00,VWS V14.01,2013-08-04 12:23:00,
2013-08-04 07:26:00,59.3,58.5,30.03,WSW,257,0.0,0.0,97,0.00,,---,0.00,VWS V14.01,2013-08-04 12:26:00,
2013-08-04 07:27:00,59.5,58.7,30.03,WSW,257,0.0,0.0,97,0.00,,---,0.00,VWS V14.01,2013-08-04 12:27:00,
2013-08-04 07:28:00,59.5,58.7,30.03,WSW,257,0.0,0.0,97,0.00,,---,0.00,VWS V14.01,2013-08-04 12:28:00,
2013-08-04 07:29:00,59.5,58.7,30.03,WSW,257,0.0,0.0,97,0.00,,---,0.00,VWS V14.01,2013-08-04 12:29:00,
2013-08-04 07:30:00,59.6,58.8,30.03,WSW,257,0.0,0.0,97,0.00,,---,0.00,VWS V14.01,2013-08-04 12:30:00,
2013-08-04 07:31:00,59.6,58.8,30.03,WSW,257,0.0,0.0,97,0.00,,---,0.00,VWS V14.01,2013-08-04 12:31:00,
2013-08-04 07:33:00,59.9,59.3,30.03,WSW,257,0.0,0.0,98,0.00,,---,0.00,VWS V14.01,2013-08-04 12:33:00,
2013-08-04 07:37:00,60.4,59.8,30.03,WSW,257,0.0,0.0,98,0.00,,---,0.00,VWS V14.01,2013-08-04 12:37:00,
2013-08-04 07:38:00,60.4,59.8,30.03,WSW,257,0.0,0.0,98,0.00,,---,0.00,VWS V14.01,2013-08-04 12:38:00,
2013-08-04 07:39:00,60.5,59.9,30.03,WSW,257,0.0,0.0,98,0.00,,---,0.00,VWS V14.01,2013-08-04 12:39:00,
2013-08-04 07:42:00,60.9,60.3,30.03,WSW,257,0.0,0.0,98,0.00,,---,0.00,VWS V14.01,2013-08-04 12:42:00,
2013-08-04 07:44:00,61.0,60.4,30.03,WSW,257,0.0,0.0,98,0.00,,---,0.00,VWS V14.01,2013-08-04 12:44:00,
2013-08-04 07:45:00,61.2,60.6,30.03,WSW,257,0.0,0.0,98,0.00,,---,0.00,VWS V14.01,2013-08-04 12:45:00,
2013-08-04 07:46:00,61.2,60.3,30.03,WSW,257,0.0,0.0,97,0.00,,---,0.00,VWS V14.01,2013-08-04 12:46:00,
2013-08-04 07:49:00,61.5,60.6,30.03,WSW,257,0.0,0.0,97,0.00,,---,0.00,VWS V14.01,2013-08-04 12:49:00,
2013-08-04 07:50:00,61.6,60.7,30.03,WSW,257,0.0,0.0,97,0.00,,---,0.00,VWS V14.01,2013-08-04 12:50:00,
2013-08-04 07:52:00,61.8,60.9,30.03,WSW,257,0.0,0.0,97,0.00,,---,0.00,VWS V14.01,2013-08-04 12:52:00,
2013-08-04 07:53:00,61.8,60.9,30.03,WSW,257,0.0,0.0,97,0.00,,---,0.00,VWS V14.01,2013-08-04 12:53:00,
2013-08-04 07:54:00,62.0,61.1,30.03,WSW,257,0.0,0.0,97,0.00,,---,0.00,VWS V14.01,2013-08-04 12:54:00,
2013-08-04 07:56:00,62.1,61.2,30.03,WSW,257,0.0,0.0,97,0.00,,---,0.00,VWS V14.01,2013-08-04 12:56:00,
2013-08-04 07:57:00,62.3,61.4,30.03,WSW,257,0.0,0.0,97,0.00,,---,0.00,VWS V14.01,2013-08-04 12:57:00,
2013-08-04 08:00:00,62.6,61.5,30.03,WSW,257,0.0,0.0,96,0.00,,---,0.00,VWS V14.01,2013-08-04 13:00:00,
2013-08-04 08:01:00,62.6,61.5,30.03,WSW,257,0.0,0.0,96,0.00,,---,0.00,VWS V14.01,2013-08-04 13:01:00,
2013-08-04 08:02:00,62.7,61.5,30.03,WSW,257,0.0,0.0,96,0.00,,---,0.00,VWS V14.01,2013-08-04 13:02:00,
2013-08-04 08:03:00,62.7,61.5,30.03,WSW,257,0.0,0.0,96,0.00,,---,0.00,VWS V14.01,2013-08-04 13:03:00,
2013-08-04 08:05:00,63.1,61.9,30.03,WSW,257,0.0,0.0,96,0.00,,---,0.00,VWS V14.01,2013-08-04 13:05:00,
2013-08-04 08:06:00,63.2,62.0,30.03,WSW,257,0.0,0.0,96,0.00,,---,0.00,VWS V14.01,2013-08-04 13:06:00,
2013-08-04 08:07:00,63.2,62.0,30.03,WSW,257,0.0,0.0,96,0.00,,---,0.00,VWS V14.01,2013-08-04 13:07:00,
2013-08-04 08:09:00,63.5,62.3,30.03,WSW,257,0.0,0.0,96,0.00,,---,0.00,VWS V14.01,2013-08-04 13:09:00,
2013-08-04 08:11:00,64.0,62.8,30.03,WSW,254,0.0,0.0,96,0.00,,---,0.00,VWS V14.01,2013-08-04 13:11:00,
2013-08-04 08:12:00,64.2,62.7,30.03,WSW,254,0.0,0.0,95,0.00,,---,0.00,VWS V14.01,2013-08-04 13:12:00,
2013-08-04 08:17:00,65.6,63.8,30.04,WSW,254,0.0,0.0,94,0.00,,---,0.00,VWS V14.01,2013-08-04 13:17:00,
2013-08-04 08:18:00,66.0,64.2,30.04,WSW,254,0.0,0.0,94,0.00,,---,0.00,VWS V14.01,2013-08-04 13:18:00,
2013-08-04 08:19:00,66.1,64.0,30.04,WSW,252,0.0,0.0,93,0.00,,---,0.00,VWS V14.01,2013-08-04 13:19:00,
2013-08-04 08:20:00,66.3,64.2,30.04,WSW,252,0.0,0.0,93,0.00,,---,0.00,VWS V14.01,2013-08-04 13:20:00,
2013-08-04 08:23:00,67.1,64.7,30.04,West,259,0.0,0.0,92,0.00,,---,0.00,VWS V14.01,2013-08-04 13:23:00,
2013-08-04 08:24:00,67.3,64.9,30.04,West,259,0.0,0.0,92,0.00,,---,0.00,VWS V14.01,2013-08-04 13:24:00,
2013-08-04 08:25:00,67.4,64.7,30.04,West,259,0.0,0.0,91,0.00,,---,0.00,VWS V14.01,2013-08-04 13:25:00,
2013-08-04 08:26:00,67.4,64.4,30.04,West,259,0.0,0.0,90,0.00,,---,0.00,VWS V14.01,2013-08-04 13:26:00,
2013-08-04 08:27:00,67.6,64.6,30.04,West,259,0.0,1.0,90,0.00,,---,0.00,VWS V14.01,2013-08-04 13:27:00,
2013-08-04 08:29:00,67.8,64.4,30.04,West,259,0.0,0.0,89,0.00,,---,0.00,VWS V14.01,2013-08-04 13:29:00,
2013-08-04 08:30:00,67.8,64.1,30.04,North,0,0.0,1.0,88,0.00,,---,0.00,VWS V14.01,2013-08-04 13:30:00,
2013-08-04 08:31:00,67.8,63.8,30.04,North,0,0.0,1.0,87,0.00,,---,0.00,VWS V14.01,2013-08-04 13:31:00,
2013-08-04 08:32:00,67.6,63.6,30.04,North,0,0.0,1.0,87,0.00,,---,0.00,VWS V14.01,2013-08-04 13:32:00,
2013-08-04 08:33:00,67.6,63.6,30.04,North,0,0.0,0.0,87,0.00,,---,0.00,VWS V14.01,2013-08-04 13:33:00,
2013-08-04 08:34:00,67.4,63.1,30.04,North,0,0.0,2.0,86,0.00,,---,0.00,VWS V14.01,2013-08-04 13:34:00,
2013-08-04 08:36:00,67.3,63.0,30.04,North,8,0.0,2.0,86,0.00,,---,0.00,VWS V14.01,2013-08-04 13:36:00,
2013-08-04 08:37:00,67.1,62.8,30.04,North,7,1.0,1.0,86,0.00,,---,0.00,VWS V14.01,2013-08-04 13:37:00,
2013-08-04 08:38:00,67.1,62.8,30.04,NNW,329,2.0,2.0,86,0.00,,---,0.00,VWS V14.01,2013-08-04 13:38:00,
2013-08-04 08:39:00,66.9,62.2,30.04,North,0,0.0,3.0,85,0.00,,---,0.00,VWS V14.01,2013-08-04 13:39:00,
2013-08-04 08:41:00,66.8,62.2,30.04,North,0,0.0,0.0,85,0.00,,---,0.00,VWS V14.01,2013-08-04 13:41:00,
2013-08-04 08:43:00,66.6,62.0,30.04,North,0,0.0,0.0,85,0.00,,---,0.00,VWS V14.01,2013-08-04 13:43:00,
2013-08-04 08:46:00,66.4,62.1,30.06,North,0,0.0,0.0,86,0.00,,---,0.00,VWS V14.01,2013-08-04 13:46:00,
2013-08-04 08:48:00,66.4,62.1,30.06,North,0,0.0,1.0,86,0.00,,---,0.00,VWS V14.01,2013-08-04 13:48:00,
2013-08-04 08:49:00,66.4,62.1,30.06,North,0,2.0,2.0,86,0.00,,---,0.00,VWS V14.01,2013-08-04 13:49:00,
2013-08-04 08:53:00,66.6,62.3,30.06,North,358,0.0,0.0,86,0.00,,---,0.00,VWS V14.01,2013-08-04 13:53:00,
2013-08-04 08:54:00,66.6,62.0,30.06,East,98,0.0,3.0,85,0.00,,---,0.00,VWS V14.01,2013-08-04 13:54:00,
2013-08-04 08:56:00,66.6,62.3,30.06,East,98,0.0,0.0,86,0.00,,---,0.00,VWS V14.01,2013-08-04 13:56:00,
2013-08-04 09:00:00,67.1,62.8,30.06,SSW,203,3.0,3.0,86,0.00,,---,0.00,VWS V14.01,2013-08-04 14:00:00,
2013-08-04 09:02:00,67.4,62.7,30.06,SSW,195,0.0,1.0,85,0.00,,---,0.00,VWS V14.01,2013-08-04 14:02:00,
2013-08-04 09:03:00,67.6,62.9,30.06,SSW,195,0.0,0.0,85,0.00,,---,0.00,VWS V14.01,2013-08-04 14:03:00,
2013-08-04 09:07:00,68.6,63.9,30.06,NNW,329,0.0,0.0,85,0.00,,---,0.00,VWS V14.01,2013-08-04 14:07:00,
2013-08-04 09:08:00,68.8,63.8,30.06,ENE,75,0.0,1.0,84,0.00,,---,0.00,VWS V14.01,2013-08-04 14:08:00,
2013-08-04 09:10:00,68.8,63.1,30.06,South,173,0.0,2.0,82,0.00,,---,0.00,VWS V14.01,2013-08-04 14:10:00,
2013-08-04 09:11:00,68.9,63.2,30.06,South,173,0.0,0.0,82,0.00,,---,0.00,VWS V14.01,2013-08-04 14:11:00,
2013-08-04 09:12:00,68.9,62.8,30.06,North,358,0.0,2.0,81,0.00,,---,0.00,VWS V14.01,2013-08-04 14:12:00,
2013-08-04 09:13:00,69.1,63.4,30.06,North,0,0.0,0.0,82,0.00,,---,0.00,VWS V14.01,2013-08-04 14:13:00,
2013-08-04 09:15:00,69.3,63.2,30.06,North,0,0.0,0.0,81,0.00,,---,0.00,VWS V14.01,2013-08-04 14:15:00,
2013-08-04 09:16:00,69.4,63.7,30.06,North,0,0.0,0.0,82,0.00,,---,0.00,VWS V14.01,2013-08-04 14:16:00,
2013-08-04 09:18:00,69.6,63.5,30.06,North,0,0.0,0.0,81,0.00,,---,0.00,VWS V14.01,2013-08-04 14:18:00,
2013-08-04 09:19:00,69.8,63.4,30.06,North,0,0.0,0.0,80,0.00,,---,0.00,VWS V14.01,2013-08-04 14:19:00,
2013-08-04 09:21:00,69.9,63.1,30.06,North,0,0.0,1.0,79,0.00,,---,0.00,VWS V14.01,2013-08-04 14:21:00,
2013-08-04 09:24:00,70.3,63.8,30.06,WSW,252,0.0,0.0,80,0.00,,---,0.00,VWS V14.01,2013-08-04 14:24:00,
2013-08-04 09:27:00,70.6,63.4,30.06,WSW,252,0.0,0.0,78,0.00,,---,0.00,VWS V14.01,2013-08-04 14:27:00,
2013-08-04 09:30:00,70.9,64.1,30.06,SW,234,0.0,0.0,79,0.00,,---,0.00,VWS V14.01,2013-08-04 14:30:00,
2013-08-04 09:31:00,71.1,63.5,30.06,SW,234,0.0,0.0,77,0.00,,---,0.00,VWS V14.01,2013-08-04 14:31:00,
2013-08-04 09:32:00,71.5,64.3,30.06,SW,215,0.0,0.0,78,0.00,,---,0.00,VWS V14.01,2013-08-04 14:32:00,
2013-08-04 09:33:00,71.6,64.0,30.06,SW,226,0.0,0.0,77,0.00,,---,0.00,VWS V14.01,2013-08-04 14:33:00,
2013-08-04 09:36:00,71.6,63.3,30.06,NW,307,0.0,2.0,75,0.00,,---,0.00,VWS V14.01,2013-08-04 14:36:00,
2013-08-04 09:37:00,71.8,63.5,30.06,NW,307,0.0,0.0,75,0.00,,---,0.00,VWS V14.01,2013-08-04 14:37:00,
2013-08-04 09:38:00,71.8,63.8,30.06,NW,307,0.0,1.0,76,0.00,,---,0.00,VWS V14.01,2013-08-04 14:38:00,
2013-08-04 09:40:00,71.8,63.1,30.06,SSE,167,1.0,1.0,74,0.00,,---,0.00,VWS V14.01,2013-08-04 14:40:00,
2013-08-04 09:41:00,71.8,63.1,30.06,SSW,200,2.0,2.0,74,0.00,,---,0.00,VWS V14.01,2013-08-04 14:41:00,
2013-08-04 09:43:00,71.8,63.8,30.06,South,190,0.0,2.0,76,0.00,,---,0.00,VWS V14.01,2013-08-04 14:43:00,
2013-08-04 09:45:00,71.8,63.1,30.06,South,190,0.0,0.0,74,0.00,,---,0.00,VWS V14.01,2013-08-04 14:45:00,
2013-08-04 09:46:00,72.0,63.7,30.06,North,0,1.0,3.0,75,0.00,,---,0.00,VWS V14.01,2013-08-04 14:46:00,
2013-08-04 09:47:00,72.0,62.9,30.06,North,0,1.0,1.0,73,0.00,,---,0.00,VWS V14.01,2013-08-04 14:47:00,
2013-08-04 09:48:00,72.0,62.9,30.06,North,0,0.0,0.0,73,0.00,,---,0.00,VWS V14.01,2013-08-04 14:48:00,
2013-08-04 09:51:00,72.1,63.0,30.06,North,0,0.0,0.0,73,0.00,,---,0.00,VWS V14.01,2013-08-04 14:51:00,
2013-08-04 09:52:00,72.3,63.2,30.06,North,0,1.0,1.0,73,0.00,,---,0.00,VWS V14.01,2013-08-04 14:52:00,
2013-08-04 09:56:00,72.7,63.2,30.06,North,0,0.0,1.0,72,0.00,,---,0.00,VWS V14.01,2013-08-04 14:56:00,
2013-08-04 09:57:00,72.7,62.8,30.06,North,0,0.0,1.0,71,0.00,,---,0.00,VWS V14.01,2013-08-04 14:57:00,
2013-08-04 09:58:00,72.7,62.8,30.06,North,0,0.0,0.0,71,0.00,,---,0.00,VWS V14.01,2013-08-04 14:58:00,
2013-08-04 10:01:00,72.7,62.8,30.06,North,356,0.0,0.0,71,0.00,,---,0.00,VWS V14.01,2013-08-04 15:01:00,
2013-08-04 10:03:00,72.3,62.0,30.06,North,352,0.0,0.0,70,0.00,,---,0.00,VWS V14.01,2013-08-04 15:03:00,
2013-08-04 10:04:00,72.3,62.4,30.06,NNW,342,2.0,2.0,71,0.00,,---,0.00,VWS V14.01,2013-08-04 15:04:00,
2013-08-04 10:06:00,72.0,62.1,30.06,North,1,0.0,1.0,71,0.00,,---,0.00,VWS V14.01,2013-08-04 15:06:00,
2013-08-04 10:08:00,71.6,62.1,30.06,South,172,1.0,1.0,72,0.00,,---,0.00,VWS V14.01,2013-08-04 15:08:00,
2013-08-04 10:09:00,71.5,62.0,30.06,South,184,3.0,3.0,72,0.00,,---,0.00,VWS V14.01,2013-08-04 15:09:00,
2013-08-04 10:10:00,71.1,61.2,30.06,SSW,194,0.0,0.0,71,0.00,,---,0.00,VWS V14.01,2013-08-04 15:10:00,
2013-08-04 10:12:00,70.9,61.8,30.06,SSW,194,0.0,0.0,73,0.00,,---,0.00,VWS V14.01,2013-08-04 15:12:00,
2013-08-04 10:13:00,70.9,62.6,30.06,SW,226,0.0,0.0,75,0.00,,---,0.00,VWS V14.01,2013-08-04 15:13:00,
2013-08-04 10:15:00,71.1,62.4,30.06,SE,143,0.0,0.0,74,0.00,,---,0.00,VWS V14.01,2013-08-04 15:15:00,
2013-08-04 10:16:00,71.1,63.2,30.06,ESE,123,1.0,1.0,76,0.00,,---,0.00,VWS V14.01,2013-08-04 15:16:00,
2013-08-04 10:18:00,71.5,62.8,30.06,SE,143,0.0,1.0,74,0.00,,---,0.00,VWS V14.01,2013-08-04 15:18:00,
2013-08-04 10:19:00,71.6,62.5,30.06,NE,52,0.0,1.0,73,0.00,,---,0.00,VWS V14.01,2013-08-04 15:19:00,
2013-08-04 10:20:00,71.6,62.5,30.06,NE,52,0.0,1.0,73,0.00,,---,0.00,VWS V14.01,2013-08-04 15:20:00,
2013-08-04 10:21:00,71.8,63.1,30.06,NE,52,0.0,0.0,74,0.00,,---,0.00,VWS V14.01,2013-08-04 15:21:00,
2013-08-04 10:24:00,72.3,62.0,30.06,SE,128,0.0,0.0,70,0.00,,---,0.00,VWS V14.01,2013-08-04 15:24:00,
2013-08-04 10:25:00,72.3,61.6,30.06,SE,128,0.0,0.0,69,0.00,,---,0.00,VWS V14.01,2013-08-04 15:25:00,
2013-08-04 10:26:00,72.5,61.8,30.06,SE,128,0.0,0.0,69,0.00,,---,0.00,VWS V14.01,2013-08-04 15:26:00,
2013-08-04 10:28:00,72.8,62.9,30.06,SE,129,0.0,0.0,71,0.00,,---,0.00,VWS V14.01,2013-08-04 15:28:00,
2013-08-04 10:31:00,73.5,63.1,30.06,SE,139,0.0,1.0,70,0.00,,---,0.00,VWS V14.01,2013-08-04 15:31:00,
2013-08-04 10:32:00,73.5,61.9,30.06,SE,139,0.0,1.0,67,0.00,,---,0.00,VWS V14.01,2013-08-04 15:32:00,
2013-08-04 10:33:00,73.5,61.0,30.06,SE,139,0.0,0.0,65,0.00,,---,0.00,VWS V14.01,2013-08-04 15:33:00,
2013-08-04 10:36:00,73.7,61.7,30.06,SE,139,0.0,0.0,66,0.00,,---,0.00,VWS V14.01,2013-08-04 15:36:00,
2013-08-04 10:37:00,73.7,61.7,30.06,SE,139,0.0,1.0,66,0.00,,---,0.00,VWS V14.01,2013-08-04 15:37:00,
2013-08-04 10:39:00,73.5,61.5,30.06,SE,139,0.0,0.0,66,0.00,,---,0.00,VWS V14.01,2013-08-04 15:39:00,
2013-08-04 10:40:00,73.5,61.9,30.06,SE,139,0.0,0.0,67,0.00,,---,0.00,VWS V14.01,2013-08-04 15:40:00,
2013-08-04 10:42:00,73.3,62.1,30.06,South,174,3.0,3.0,68,0.00,,---,0.00,VWS V14.01,2013-08-04 15:42:00,
2013-08-04 10:44:00,73.2,62.4,30.06,SSW,199,0.0,0.0,69,0.00,,---,0.00,VWS V14.01,2013-08-04 15:44:00,
2013-08-04 10:45:00,73.2,62.4,30.06,SSW,199,0.0,0.0,69,0.00,,---,0.00,VWS V14.01,2013-08-04 15:45:00,
2013-08-04 10:48:00,73.3,62.1,30.06,North,358,3.0,3.0,68,0.00,,---,0.00,VWS V14.01,2013-08-04 15:48:00,
2013-08-04 10:49:00,73.3,62.1,30.06,North,358,0.0,3.0,68,0.00,,---,0.00,VWS V14.01,2013-08-04 15:49:00,
2013-08-04 10:52:00,73.2,62.0,30.06,East,92,0.0,1.0,68,0.00,,---,0.00,VWS V14.01,2013-08-04 15:52:00,
2013-08-04 10:53:00,73.3,62.9,30.06,East,92,0.0,0.0,70,0.00,,---,0.00,VWS V14.01,2013-08-04 15:53:00,
2013-08-04 10:55:00,73.7,63.7,30.06,SSE,166,0.0,0.0,71,0.00,,---,0.00,VWS V14.01,2013-08-04 15:55:00,
2013-08-04 10:56:00,73.9,63.5,30.06,SSE,166,0.0,0.0,70,0.00,,---,0.00,VWS V14.01,2013-08-04 15:56:00,
2013-08-04 10:58:00,74.0,61.9,30.06,NNW,333,0.0,1.0,66,0.00,,---,0.00,VWS V14.01,2013-08-04 15:58:00,
2013-08-04 11:00:00,73.9,61.4,30.05,NNW,333,0.0,0.0,65,0.00,,---,0.00,VWS V14.01,2013-08-04 16:00:00,
2013-08-04 11:01:00,73.9,61.4,30.05,NNW,333,0.0,0.0,65,0.00,,---,0.00,VWS V14.01,2013-08-04 16:01:00,
2013-08-04 11:04:00,73.9,62.3,30.05,NNW,333,1.0,1.0,67,0.00,,---,0.00,VWS V14.01,2013-08-04 16:04:00,
2013-08-04 11:05:00,73.7,62.1,30.05,NW,324,0.0,0.0,67,0.00,,---,0.00,VWS V14.01,2013-08-04 16:05:00,
2013-08-04 11:07:00,73.7,62.9,30.05,North,354,0.0,1.0,69,0.00,,---,0.00,VWS V14.01,2013-08-04 16:07:00,
2013-08-04 11:10:00,73.9,62.7,30.05,North,354,0.0,0.0,68,0.00,,---,0.00,VWS V14.01,2013-08-04 16:10:00,
2013-08-04 11:11:00,74.0,63.2,30.05,North,354,1.0,1.0,69,0.00,,---,0.00,VWS V14.01,2013-08-04 16:11:00,
2013-08-04 11:13:00,74.2,62.5,30.05,North,355,0.0,1.0,67,0.00,,---,0.00,VWS V14.01,2013-08-04 16:13:00,
2013-08-04 11:16:00,74.7,63.5,30.05,North,0,0.0,0.0,68,0.00,,---,0.00,VWS V14.01,2013-08-04 16:16:00,
2013-08-04 11:17:00,74.9,63.6,30.05,North,0,0.0,0.0,68,0.00,,---,0.00,VWS V14.01,2013-08-04 16:17:00,
2013-08-04 11:19:00,74.7,61.7,30.05,NNW,344,0.0,0.0,64,0.00,,---,0.00,VWS V14.01,2013-08-04 16:19:00,
2013-08-04 11:21:00,74.6,61.6,30.05,NNW,347,0.0,0.0,64,0.00,,---,0.00,VWS V14.01,2013-08-04 16:21:00,
2013-08-04 11:22:00,74.4,61.4,30.05,NNW,347,0.0,0.0,64,0.00,,---,0.00,VWS V14.01,2013-08-04 16:22:00,
2013-08-04 11:23:00,74.4,61.9,30.05,NNW,347,0.0,0.0,65,0.00,,---,0.00,VWS V14.01,2013-08-04 16:23:00,
2013-08-04 11:25:00,74.0,61.9,30.05,NNW,347,0.0,1.0,66,0.00,,---,0.00,VWS V14.01,2013-08-04 16:25:00,
2013-08-04 11:28:00,73.5,61.5,30.05,North,358,0.0,0.0,66,0.00,,---,0.00,VWS V14.01,2013-08-04 16:28:00,
2013-08-04 11:29:00,73.5,61.5,30.05,North,358,0.0,0.0,66,0.00,,---,0.00,VWS V14.01,2013-08-04 16:29:00,
2013-08-04 11:31:00,73.3,62.9,30.05,North,358,0.0,1.0,70,0.00,,---,0.00,VWS V14.01,2013-08-04 16:31:00,
2013-08-04 11:34:00,73.5,63.1,30.05,North,358,1.0,1.0,70,0.00,,---,0.00,VWS V14.01,2013-08-04 16:34:00,
2013-08-04 11:37:00,73.7,62.5,30.05,North,358,0.0,0.0,68,0.00,,---,0.00,VWS V14.01,2013-08-04 16:37:00,
2013-08-04 11:38:00,73.7,61.7,30.05,North,358,0.0,0.0,66,0.00,,---,0.00,VWS V14.01,2013-08-04 16:38:00,
2013-08-04 11:41:00,73.5,61.0,30.05,North,358,1.0,1.0,65,0.00,,---,0.00,VWS V14.01,2013-08-04 16:41:00,
2013-08-04 11:44:00,73.2,60.7,30.05,North,358,0.0,1.0,65,0.00,,---,0.00,VWS V14.01,2013-08-04 16:44:00,
2013-08-04 11:45:00,73.2,60.7,30.05,North,358,1.0,1.0,65,0.00,,---,0.00,VWS V14.01,2013-08-04 16:45:00,
2013-08-04 11:46:00,73.2,60.7,30.05,North,358,1.0,1.0,65,0.00,,---,0.00,VWS V14.01,2013-08-04 16:46:00,
2013-08-04 11:49:00,73.2,60.7,30.05,NE,39,1.0,4.0,65,0.00,,---,0.00,VWS V14.01,2013-08-04 16:49:00,
2013-08-04 11:50:00,73.3,61.3,30.05,NE,39,1.0,1.0,66,0.00,,---,0.00,VWS V14.01,2013-08-04 16:50:00,
2013-08-04 11:51:00,73.5,61.9,30.05,North,358,0.0,3.0,67,0.00,,---,0.00,VWS V14.01,2013-08-04 16:51:00,
2013-08-04 11:52:00,73.7,61.7,30.05,North,358,0.0,0.0,66,0.00,,---,0.00,VWS V14.01,2013-08-04 16:52:00,
2013-08-04 11:56:00,74.0,60.2,30.05,North,358,0.0,2.0,62,0.00,,---,0.00,VWS V14.01,2013-08-04 16:56:00,
2013-08-04 11:57:00,74.0,60.2,30.05,North,358,1.0,2.0,62,0.00,,---,0.00,VWS V14.01,2013-08-04 16:57:00,
2013-08-04 11:59:00,74.2,61.7,30.05,North,0,0.0,2.0,65,0.00,,---,0.00,VWS V14.01,2013-08-04 16:59:00,
2013-08-04 12:02:00,74.6,60.7,30.04,ESE,110,0.0,0.0,62,0.00,,---,0.00,VWS V14.01,2013-08-04 17:02:00,
2013-08-04 12:03:00,74.6,60.7,30.04,ESE,117,0.0,0.0,62,0.00,,---,0.00,VWS V14.01,2013-08-04 17:03:00,
2013-08-04 12:05:00,74.7,61.7,30.04,North,354,2.0,3.0,64,0.00,,---,0.00,VWS V14.01,2013-08-04 17:05:00,
2013-08-04 12:09:00,74.7,60.8,30.04,WNW,283,2.0,2.0,62,0.00,,---,0.00,VWS V14.01,2013-08-04 17:09:00,
2013-08-04 12:10:00,74.7,59.4,30.04,NW,325,2.0,3.0,59,0.00,,---,0.00,VWS V14.01,2013-08-04 17:10:00,
2013-08-04 12:13:00,74.2,58.5,30.04,North,352,0.0,1.0,58,0.00,,---,0.00,VWS V14.01,2013-08-04 17:13:00,
2013-08-04 12:14:00,74.0,57.8,30.04,North,358,1.0,2.0,57,0.00,,---,0.00,VWS V14.01,2013-08-04 17:14:00,
2013-08-04 12:16:00,73.9,58.7,30.04,North,358,1.0,3.0,59,0.00,,---,0.00,VWS V14.01,2013-08-04 17:16:00,
2013-08-04 12:19:00,73.9,59.6,30.04,North,1,0.0,3.0,61,0.00,,---,0.00,VWS V14.01,2013-08-04 17:19:00,
2013-08-04 12:21:00,73.9,58.2,30.04,North,1,1.0,1.0,58,0.00,,---,0.00,VWS V14.01,2013-08-04 17:21:00,
2013-08-04 12:22:00,74.0,57.8,30.04,North,353,2.0,3.0,57,0.00,,---,0.00,VWS V14.01,2013-08-04 17:22:00,
2013-08-04 12:25:00,74.2,60.4,30.04,North,358,0.0,3.0,62,0.00,,---,0.00,VWS V14.01,2013-08-04 17:25:00,
2013-08-04 12:27:00,74.4,60.1,30.04,North,0,0.0,0.0,61,0.00,,---,0.00,VWS V14.01,2013-08-04 17:27:00,
2013-08-04 12:28:00,74.4,60.1,30.04,NNE,30,1.0,1.0,61,0.00,,---,0.00,VWS V14.01,2013-08-04 17:28:00,
2013-08-04 12:29:00,74.6,60.7,30.04,NNE,30,0.0,0.0,62,0.00,,---,0.00,VWS V14.01,2013-08-04 17:29:00,
2013-08-04 12:30:00,74.6,60.3,30.04,NE,55,0.0,1.0,61,0.00,,---,0.00,VWS V14.01,2013-08-04 17:30:00,
2013-08-04 12:32:00,74.6,58.9,30.04,NE,44,0.0,2.0,58,0.00,,---,0.00,VWS V14.01,2013-08-04 17:32:00,
2013-08-04 12:33:00,74.4,57.7,30.04,NE,44,0.0,2.0,56,0.00,,---,0.00,VWS V14.01,2013-08-04 17:33:00,
2013-08-04 12:34:00,74.4,57.7,30.04,ESE,121,1.0,1.0,56,0.00,,---,0.00,VWS V14.01,2013-08-04 17:34:00,
2013-08-04 12:35:00,74.2,59.0,30.04,North,11,0.0,1.0,59,0.00,,---,0.00,VWS V14.01,2013-08-04 17:35:00,
2013-08-04 12:39:00,74.4,59.2,30.04,SSE,157,0.0,0.0,59,0.00,,---,0.00,VWS V14.01,2013-08-04 17:39:00,
2013-08-04 12:41:00,74.6,59.8,30.04,North,0,3.0,3.0,60,0.00,,---,0.00,VWS V14.01,2013-08-04 17:41:00,
2013-08-04 12:44:00,74.6,59.3,30.04,North,0,2.0,3.0,59,0.00,,---,0.00,VWS V14.01,2013-08-04 17:44:00,
2013-08-04 12:46:00,74.4,57.7,30.04,North,349,2.0,2.0,56,0.00,,---,0.00,VWS V14.01,2013-08-04 17:46:00,
2013-08-04 12:47:00,74.2,57.5,30.04,North,357,2.0,3.0,56,0.00,,---,0.00,VWS V14.01,2013-08-04 17:47:00,
2013-08-04 12:49:00,74.0,57.3,30.04,North,358,0.0,0.0,56,0.00,,---,0.00,VWS V14.01,2013-08-04 17:49:00,
2013-08-04 12:50:00,74.0,57.3,30.04,North,0,1.0,2.0,56,0.00,,---,0.00,VWS V14.01,2013-08-04 17:50:00,
2013-08-04 12:51:00,74.0,58.3,30.04,North,0,3.0,3.0,58,0.00,,---,0.00,VWS V14.01,2013-08-04 17:51:00,
2013-08-04 12:53:00,74.0,58.3,30.04,North,354,1.0,1.0,58,0.00,,---,0.00,VWS V14.01,2013-08-04 17:53:00,
2013-08-04 12:54:00,74.0,59.2,30.04,North,357,0.0,1.0,60,0.00,,---,0.00,VWS V14.01,2013-08-04 17:54:00,
2013-08-04 12:55:00,74.2,59.4,30.04,North,3,0.0,1.0,60,0.00,,---,0.00,VWS V14.01,2013-08-04 17:55:00,
2013-08-04 12:58:00,74.4,59.2,30.04,SW,215,0.0,1.0,59,0.00,,---,0.00,VWS V14.01,2013-08-04 17:58:00,
2013-08-04 12:59:00,74.4,59.2,30.04,NW,326,1.0,2.0,59,0.00,,---,0.00,VWS V14.01,2013-08-04 17:59:00,
2013-08-04 13:00:00,74.4,59.2,30.04,NNW,348,2.0,3.0,59,0.00,,---,0.00,VWS V14.01,2013-08-04 18:00:00,
2013-08-04 13:02:00,74.4,57.7,30.04,North,0,0.0,2.0,56,0.00,,---,0.00,VWS V14.01,2013-08-04 18:02:00,
2013-08-04 13:04:00,74.6,59.3,30.04,East,86,0.0,2.0,59,0.00,,---,0.00,VWS V14.01,2013-08-04 18:04:00,
2013-08-04 13:05:00,74.6,59.8,30.04,SE,124,2.0,2.0,60,0.00,,---,0.00,VWS V14.01,2013-08-04 18:05:00,
2013-08-04 13:06:00,74.6,59.3,30.04,ESE,113,0.0,2.0,59,0.00,,---,0.00,VWS V14.01,2013-08-04 18:06:00,
2013-08-04 13:09:00,74.7,59.0,30.04,NNW,339,1.0,3.0,58,0.00,,---,0.00,VWS V14.01,2013-08-04 18:09:00,
2013-08-04 13:11:00,74.7,58.5,30.04,NNW,340,0.0,1.0,57,0.00,,---,0.00,VWS V14.01,2013-08-04 18:11:00,
2013-08-04 13:12:00,74.7,60.4,30.04,North,358,1.0,4.0,61,0.00,,---,0.00,VWS V14.01,2013-08-04 18:12:00,
2013-08-04 13:13:00,74.7,60.4,30.04,North,358,2.0,4.0,61,0.00,,---,0.00,VWS V14.01,2013-08-04 18:13:00,
2013-08-04 13:14:00,74.7,58.5,30.04,North,358,1.0,3.0,57,0.00,,---,0.00,VWS V14.01,2013-08-04 18:14:00,
2013-08-04 13:17:00,74.6,58.9,30.04,North,0,1.0,2.0,58,0.00,,---,0.00,VWS V14.01,2013-08-04 18:17:00,
2013-08-04 13:18:00,74.6,58.4,30.04,North,0,1.0,1.0,57,0.00,,---,0.00,VWS V14.01,2013-08-04 18:18:00,
2013-08-04 13:19:00,74.6,58.9,30.04,North,0,0.0,1.0,58,0.00,,---,0.00,VWS V14.01,2013-08-04 18:19:00,
2013-08-04 13:20:00,74.4,58.7,30.04,North,358,0.0,1.0,58,0.00,,---,0.00,VWS V14.01,2013-08-04 18:20:00,
2013-08-04 13:25:00,74.6,58.9,30.04,NNE,29,1.0,1.0,58,0.00,,---,0.00,VWS V14.01,2013-08-04 18:25:00,
2013-08-04 13:26:00,74.7,59.9,30.04,ENE,60,0.0,3.0,60,0.00,,---,0.00,VWS V14.01,2013-08-04 18:26:00,
2013-08-04 13:27:00,74.7,59.9,30.04,NE,51,0.0,0.0,60,0.00,,---,0.00,VWS V14.01,2013-08-04 18:27:00,
2013-08-04 13:28:00,74.9,59.6,30.04,NE,51,0.0,0.0,59,0.00,,---,0.00,VWS V14.01,2013-08-04 18:28:00,
2013-08-04 13:30:00,75.1,60.8,30.04,WSW,245,0.0,0.0,61,0.00,,---,0.00,VWS V14.01,2013-08-04 18:30:00,
2013-08-04 13:32:00,75.3,60.0,30.04,WNW,302,1.0,2.0,59,0.00,,---,0.00,VWS V14.01,2013-08-04 18:32:00,
2013-08-04 13:33:00,75.3,59.0,30.04,WNW,302,0.0,1.0,57,0.00,,---,0.00,VWS V14.01,2013-08-04 18:33:00,
2013-08-04 13:34:00,75.4,59.6,30.04,North,350,1.0,2.0,58,0.00,,---,0.00,VWS V14.01,2013-08-04 18:34:00,
2013-08-04 13:35:00,75.4,58.6,30.04,North,350,2.0,2.0,56,0.00,,---,0.00,VWS V14.01,2013-08-04 18:35:00,
2013-08-04 13:36:00,75.3,58.5,30.04,North,6,0.0,0.0,56,0.00,,---,0.00,VWS V14.01,2013-08-04 18:36:00,
2013-08-04 13:37:00,75.4,60.1,30.04,North,6,3.0,3.0,59,0.00,,---,0.00,VWS V14.01,2013-08-04 18:37:00,
2013-08-04 13:38:00,75.4,59.6,30.04,ENE,74,1.0,1.0,58,0.00,,---,0.00,VWS V14.01,2013-08-04 18:38:00,
2013-08-04 13:41:00,75.3,58.0,30.04,North,358,0.0,3.0,55,0.00,,---,0.00,VWS V14.01,2013-08-04 18:41:00,
2013-08-04 13:42:00,75.3,57.5,30.04,North,8,2.0,3.0,54,0.00,,---,0.00,VWS V14.01,2013-08-04 18:42:00,
2013-08-04 13:43:00,75.3,57.5,30.04,North,8,2.0,3.0,54,0.00,,---,0.00,VWS V14.01,2013-08-04 18:43:00,
2013-08-04 13:44:00,75.1,57.3,30.04,NNW,346,3.0,3.0,54,0.00,,---,0.00,VWS V14.01,2013-08-04 18:44:00,
2013-08-04 13:47:00,74.7,57.5,30.04,North,0,1.0,2.0,55,0.00,,---,0.00,VWS V14.01,2013-08-04 18:47:00,
2013-08-04 13:48:00,74.7,58.0,30.04,North,353,1.0,2.0,56,0.00,,---,0.00,VWS V14.01,2013-08-04 18:48:00,
2013-08-04 13:50:00,74.4,58.7,30.04,NNW,347,0.0,3.0,58,0.00,,---,0.00,VWS V14.01,2013-08-04 18:50:00,
2013-08-04 13:52:00,74.2,58.0,30.04,NNE,15,0.0,2.0,57,0.00,,---,0.00,VWS V14.01,2013-08-04 18:52:00,
2013-08-04 13:53:00,74.2,58.5,30.04,NNE,15,0.0,1.0,58,0.00,,---,0.00,VWS V14.01,2013-08-04 18:53:00,
2013-08-04 13:54:00,74.2,57.5,30.04,North,0,1.0,3.0,56,0.00,,---,0.00,VWS V14.01,2013-08-04 18:54:00,
2013-08-04 13:56:00,74.2,57.5,30.04,North,0,0.0,2.0,56,0.00,,---,0.00,VWS V14.01,2013-08-04 18:56:00,
2013-08-04 13:58:00,74.4,59.6,30.04,ENE,57,1.0,1.0,60,0.00,,---,0.00,VWS V14.01,2013-08-04 18:58:00,
2013-08-04 13:59:00,74.4,58.7,30.04,ESE,114,0.0,2.0,58,0.00,,---,0.00,VWS V14.01,2013-08-04 18:59:00,
2013-08-04 14:00:00,74.6,57.9,30.04,North,358,1.0,3.0,56,0.00,,---,0.00,VWS V14.01,2013-08-04 19:00:00,
2013-08-04 14:02:00,74.4,56.7,30.04,North,358,0.0,4.0,54,0.00,,---,0.00,VWS V14.01,2013-08-04 19:02:00,
2013-08-04 14:03:00,74.4,56.2,30.04,North,358,0.0,2.0,53,0.00,,---,0.00,VWS V14.01,2013-08-04 19:03:00,
2013-08-04 14:04:00,74.2,57.0,30.04,NNW,345,2.0,3.0,55,0.00,,---,0.00,VWS V14.01,2013-08-04 19:04:00,
2013-08-04 14:05:00,74.2,57.0,30.04,North,358,1.0,3.0,55,0.00,,---,0.00,VWS V14.01,2013-08-04 19:05:00,
2013-08-04 14:09:00,73.9,56.7,30.04,North,0,2.0,3.0,55,0.00,,---,0.00,VWS V14.01,2013-08-04 19:09:00,
2013-08-04 14:10:00,73.7,56.5,30.04,North,349,0.0,2.0,55,0.00,,---,0.00,VWS V14.01,2013-08-04 19:10:00,
2013-08-04 14:11:00,73.7,56.5,30.04,North,349,2.0,2.0,55,0.00,,---,0.00,VWS V14.01,2013-08-04 19:11:00,
2013-08-04 14:12:00,73.7,56.5,30.04,NNW,335,3.0,3.0,55,0.00,,---,0.00,VWS V14.01,2013-08-04 19:12:00,
2013-08-04 14:16:00,73.5,56.9,30.04,NNE,27,0.0,3.0,56,0.00,,---,0.00,VWS V14.01,2013-08-04 19:16:00,
2013-08-04 14:17:00,73.7,57.5,30.04,NNE,27,2.0,3.0,57,0.00,,---,0.00,VWS V14.01,2013-08-04 19:17:00,
2013-08-04 14:18:00,73.7,57.5,30.04,NNE,27,1.0,2.0,57,0.00,,---,0.00,VWS V14.01,2013-08-04 19:18:00,
2013-08-04 14:19:00,73.9,57.7,30.04,NNW,341,2.0,3.0,57,0.00,,---,0.00,VWS V14.01,2013-08-04 19:19:00,
2013-08-04 14:21:00,73.9,58.7,30.04,NNE,15,1.0,2.0,59,0.00,,---,0.00,VWS V14.01,2013-08-04 19:21:00,
2013-08-04 14:22:00,73.9,57.7,30.04,NNE,13,1.0,4.0,57,0.00,,---,0.00,VWS V14.01,2013-08-04 19:22:00,
2013-08-04 14:23:00,74.0,57.3,30.04,NNE,25,3.0,3.0,56,0.00,,---,0.00,VWS V14.01,2013-08-04 19:23:00,
2013-08-04 14:25:00,73.9,57.2,30.04,North,0,0.0,3.0,56,0.00,,---,0.00,VWS V14.01,2013-08-04 19:25:00,
2013-08-04 14:27:00,73.9,57.7,30.04,ENE,77,0.0,2.0,57,0.00,,---,0.00,VWS V14.01,2013-08-04 19:27:00,
2013-08-04 14:28:00,73.9,58.2,30.04,ENE,74,0.0,1.0,58,0.00,,---,0.00,VWS V14.01,2013-08-04 19:28:00,
2013-08-04 14:31:00,74.0,58.3,30.03,NNW,347,1.0,1.0,58,0.00,,---,0.00,VWS V14.01,2013-08-04 19:31:00,
2013-08-04 14:33:00,74.4,59.2,30.03,North,0,0.0,2.0,59,0.00,,---,0.00,VWS V14.01,2013-08-04 19:33:00,
2013-08-04 14:34:00,74.4,59.6,30.03,North,0,1.0,1.0,60,0.00,,---,0.00,VWS V14.01,2013-08-04 19:34:00,
2013-08-04 14:36:00,74.4,58.2,30.03,North,0,2.0,4.0,57,0.00,,---,0.00,VWS V14.01,2013-08-04 19:36:00,
2013-08-04 14:38:00,74.2,57.5,30.03,SE,139,0.0,2.0,56,0.00,,---,0.00,VWS V14.01,2013-08-04 19:38:00,
2013-08-04 14:40:00,74.0,56.8,30.03,North,11,1.0,4.0,55,0.00,,---,0.00,VWS V14.01,2013-08-04 19:40:00,
2013-08-04 14:41:00,74.0,56.8,30.03,NNE,30,0.0,4.0,55,0.00,,---,0.00,VWS V14.01,2013-08-04 19:41:00,
2013-08-04 14:44:00,73.7,55.5,30.03,North,2,2.0,3.0,53,0.00,,---,0.00,VWS V14.01,2013-08-04 19:44:00,
2013-08-04 14:46:00,73.5,55.9,30.03,North,0,0.0,1.0,54,0.00,,---,0.00,VWS V14.01,2013-08-04 19:46:00,
2013-08-04 14:47:00,73.5,56.9,30.03,North,0,0.0,0.0,56,0.00,,---,0.00,VWS V14.01,2013-08-04 19:47:00,
2013-08-04 14:48:00,73.3,57.2,30.03,North,350,1.0,2.0,57,0.00,,---,0.00,VWS V14.01,2013-08-04 19:48:00,
2013-08-04 14:51:00,73.0,55.9,30.03,North,0,1.0,3.0,55,0.00,,---,0.00,VWS V14.01,2013-08-04 19:51:00,
2013-08-04 14:53:00,73.0,56.4,30.03,East,79,1.0,1.0,56,0.00,,---,0.00,VWS V14.01,2013-08-04 19:53:00,
2013-08-04 14:54:00,73.0,56.4,30.03,ENE,77,0.0,2.0,56,0.00,,---,0.00,VWS V14.01,2013-08-04 19:54:00,
2013-08-04 14:58:00,73.2,57.1,30.03,ENE,63,0.0,1.0,57,0.00,,---,0.00,VWS V14.01,2013-08-04 19:58:00,
2013-08-04 14:59:00,73.3,58.1,30.03,ESE,110,2.0,2.0,59,0.00,,---,0.00,VWS V14.01,2013-08-04 19:59:00,
2013-08-04 15:02:00,73.3,55.7,30.03,North,358,0.0,5.0,54,0.00,,---,0.00,VWS V14.01,2013-08-04 20:02:00,
2013-08-04 15:03:00,73.3,56.7,30.03,NNW,346,4.0,4.0,56,0.00,,---,0.00,VWS V14.01,2013-08-04 20:03:00,
2013-08-04 15:04:00,73.2,56.6,30.03,NNW,346,1.0,1.0,56,0.00,,---,0.00,VWS V14.01,2013-08-04 20:04:00,
2013-08-04 15:05:00,73.2,57.1,30.03,NNW,346,0.0,0.0,57,0.00,,---,0.00,VWS V14.01,2013-08-04 20:05:00,
2013-08-04 15:07:00,73.2,58.0,30.03,NNW,346,2.0,2.0,59,0.00,,---,0.00,VWS V14.01,2013-08-04 20:07:00,
2013-08-04 15:09:00,73.0,57.4,30.03,ENE,73,0.0,1.0,58,0.00,,---,0.00,VWS V14.01,2013-08-04 20:09:00,
2013-08-04 15:11:00,73.0,56.9,30.03,NNW,335,0.0,3.0,57,0.00,,---,0.00,VWS V14.01,2013-08-04 20:11:00,
2013-08-04 15:12:00,73.0,56.9,30.03,North,0,4.0,4.0,57,0.00,,---,0.00,VWS V14.01,2013-08-04 20:12:00,
2013-08-04 15:13:00,72.8,55.7,30.03,North,358,0.0,4.0,55,0.00,,---,0.00,VWS V14.01,2013-08-04 20:13:00,
2013-08-04 15:16:00,72.7,56.6,30.03,ENE,68,0.0,0.0,57,0.00,,---,0.00,VWS V14.01,2013-08-04 20:16:00,
2013-08-04 15:17:00,72.8,57.2,30.03,ENE,68,0.0,0.0,58,0.00,,---,0.00,VWS V14.01,2013-08-04 20:17:00,
2013-08-04 15:18:00,72.8,57.7,30.03,ENE,68,0.0,0.0,59,0.00,,---,0.00,VWS V14.01,2013-08-04 20:18:00,
2013-08-04 15:19:00,72.8,56.7,30.03,ENE,67,0.0,0.0,57,0.00,,---,0.00,VWS V14.01,2013-08-04 20:19:00,
2013-08-04 15:21:00,73.0,56.4,30.03,ENE,67,0.0,1.0,56,0.00,,---,0.00,VWS V14.01,2013-08-04 20:21:00,
2013-08-04 15:22:00,73.0,57.4,30.03,East,79,0.0,2.0,58,0.00,,---,0.00,VWS V14.01,2013-08-04 20:22:00,
2013-08-04 15:24:00,73.0,56.9,30.03,North,0,2.0,2.0,57,0.00,,---,0.00,VWS V14.01,2013-08-04 20:24:00,
2013-08-04 15:26:00,73.0,56.9,30.03,SSE,162,0.0,1.0,57,0.00,,---,0.00,VWS V14.01,2013-08-04 20:26:00,
2013-08-04 15:28:00,73.0,57.4,30.03,NNW,348,0.0,3.0,58,0.00,,---,0.00,VWS V14.01,2013-08-04 20:28:00,
2013-08-04 15:29:00,73.0,57.8,30.02,East,96,1.0,1.0,59,0.00,,---,0.00,VWS V14.01,2013-08-04 20:29:00,
2013-08-04 15:30:00,73.0,57.8,30.02,ENE,67,0.0,2.0,59,0.00,,---,0.00,VWS V14.01,2013-08-04 20:30:00,
2013-08-04 15:31:00,73.0,57.4,30.02,NNE,17,2.0,2.0,58,0.00,,---,0.00,VWS V14.01,2013-08-04 20:31:00,
2013-08-04 15:32:00,73.0,56.9,30.02,North,6,2.0,4.0,57,0.00,,---,0.00,VWS V14.01,2013-08-04 20:32:00,
2013-08-04 15:35:00,72.7,55.6,30.02,North,2,0.0,1.0,55,0.00,,---,0.00,VWS V14.01,2013-08-04 20:35:00,
2013-08-04 15:36:00,72.7,56.1,30.02,North,1,0.0,0.0,56,0.00,,---,0.00,VWS V14.01,2013-08-04 20:36:00,
2013-08-04 15:37:00,72.7,57.1,30.02,North,1,0.0,2.0,58,0.00,,---,0.00,VWS V14.01,2013-08-04 20:37:00,
2013-08-04 15:39:00,72.5,55.9,30.02,North,1,0.0,1.0,56,0.00,,---,0.00,VWS V14.01,2013-08-04 20:39:00,
2013-08-04 15:42:00,72.5,57.4,30.02,NE,52,0.0,1.0,59,0.00,,---,0.00,VWS V14.01,2013-08-04 20:42:00,
2013-08-04 15:43:00,72.5,57.4,30.02,NE,52,1.0,1.0,59,0.00,,---,0.00,VWS V14.01,2013-08-04 20:43:00,
2013-08-04 15:46:00,72.7,57.1,30.02,NE,52,0.0,1.0,58,0.00,,---,0.00,VWS V14.01,2013-08-04 20:46:00,
2013-08-04 15:47:00,72.7,57.1,30.02,NE,37,0.0,2.0,58,0.00,,---,0.00,VWS V14.01,2013-08-04 20:47:00,
2013-08-04 15:49:00,72.5,55.9,30.02,North,0,1.0,2.0,56,0.00,,---,0.00,VWS V14.01,2013-08-04 20:49:00,
2013-08-04 15:50:00,72.5,55.9,30.02,ESE,113,0.0,0.0,56,0.00,,---,0.00,VWS V14.01,2013-08-04 20:50:00,
2013-08-04 15:54:00,72.3,55.7,30.02,NNE,30,0.0,0.0,56,0.00,,---,0.00,VWS V14.01,2013-08-04 20:54:00,
2013-08-04 15:55:00,72.5,57.4,30.02,NNE,30,0.0,1.0,59,0.00,,---,0.00,VWS V14.01,2013-08-04 20:55:00,
2013-08-04 15:56:00,72.5,57.4,30.02,NNE,30,0.0,1.0,59,0.00,,---,0.00,VWS V14.01,2013-08-04 20:56:00,
2013-08-04 16:00:00,72.5,56.9,30.02,North,358,1.0,3.0,58,0.00,,---,0.00,VWS V14.01,2013-08-04 21:00:00,
2013-08-04 16:01:00,72.3,56.2,30.02,North,358,0.0,2.0,57,0.00,,---,0.00,VWS V14.01,2013-08-04 21:01:00,
2013-08-04 16:02:00,72.3,56.7,30.02,North,358,0.0,2.0,58,0.00,,---,0.00,VWS V14.01,2013-08-04 21:02:00,
2013-08-04 16:03:00,72.3,56.2,30.02,North,358,1.0,2.0,57,0.00,,---,0.00,VWS V14.01,2013-08-04 21:03:00,
2013-08-04 16:06:00,72.1,56.5,30.02,ESE,113,0.0,1.0,58,0.00,,---,0.00,VWS V14.01,2013-08-04 21:06:00,
2013-08-04 16:07:00,72.1,56.5,30.02,ESE,113,0.0,0.0,58,0.00,,---,0.00,VWS V14.01,2013-08-04 21:07:00,
2013-08-04 16:09:00,72.1,56.5,30.02,NE,43,1.0,1.0,58,0.00,,---,0.00,VWS V14.01,2013-08-04 21:09:00,
2013-08-04 16:11:00,72.1,57.0,30.02,NNE,13,0.0,3.0,59,0.00,,---,0.00,VWS V14.01,2013-08-04 21:11:00,
2013-08-04 16:15:00,72.0,55.5,30.02,North,4,0.0,0.0,56,0.00,,---,0.00,VWS V14.01,2013-08-04 21:15:00,
2013-08-04 16:16:00,72.0,56.4,30.02,North,4,0.0,1.0,58,0.00,,---,0.00,VWS V14.01,2013-08-04 21:16:00,
2013-08-04 16:17:00,72.0,56.9,30.02,North,4,1.0,1.0,59,0.00,,---,0.00,VWS V14.01,2013-08-04 21:17:00,
2013-08-04 16:21:00,71.8,57.2,30.02,ESE,104,0.0,1.0,60,0.00,,---,0.00,VWS V14.01,2013-08-04 21:21:00,
2013-08-04 16:22:00,71.8,57.2,30.02,East,84,2.0,3.0,60,0.00,,---,0.00,VWS V14.01,2013-08-04 21:22:00,
2013-08-04 16:23:00,71.8,57.2,30.02,ENE,63,0.0,2.0,60,0.00,,---,0.00,VWS V14.01,2013-08-04 21:23:00,
2013-08-04 16:25:00,71.8,56.7,30.02,NNW,344,1.0,3.0,59,0.00,,---,0.00,VWS V14.01,2013-08-04 21:25:00,
2013-08-04 16:27:00,71.6,56.5,30.02,NNW,344,0.0,0.0,59,0.00,,---,0.00,VWS V14.01,2013-08-04 21:27:00,
2013-08-04 16:28:00,71.6,56.5,30.02,NNW,344,2.0,2.0,59,0.00,,---,0.00,VWS V14.01,2013-08-04 21:28:00,
2013-08-04 16:32:00,71.3,55.8,30.03,North,5,0.0,0.0,58,0.00,,---,0.00,VWS V14.01,2013-08-04 21:32:00,
2013-08-04 16:33:00,71.3,55.8,30.03,North,5,0.0,0.0,58,0.00,,---,0.00,VWS V14.01,2013-08-04 21:33:00,
2013-08-04 16:34:00,71.3,56.7,30.03,North,5,1.0,1.0,60,0.00,,---,0.00,VWS V14.01,2013-08-04 21:34:00,
2013-08-04 16:35:00,71.3,56.7,30.03,NNW,335,2.0,2.0,60,0.00,,---,0.00,VWS V14.01,2013-08-04 21:35:00,
2013-08-04 16:38:00,71.1,56.1,30.03,North,352,3.0,3.0,59,0.00,,---,0.00,VWS V14.01,2013-08-04 21:38:00,
2013-08-04 16:39:00,71.1,55.6,30.03,North,352,3.0,3.0,58,0.00,,---,0.00,VWS V14.01,2013-08-04 21:39:00,
2013-08-04 16:40:00,70.9,55.4,30.03,North,352,0.0,1.0,58,0.00,,---,0.00,VWS V14.01,2013-08-04 21:40:00,
2013-08-04 16:41:00,70.9,55.9,30.03,North,356,2.0,2.0,59,0.00,,---,0.00,VWS V14.01,2013-08-04 21:41:00,
2013-08-04 16:45:00,70.8,56.2,30.03,NNW,337,0.0,0.0,60,0.00,,---,0.00,VWS V14.01,2013-08-04 21:45:00,
2013-08-04 16:46:00,70.8,56.2,30.03,NNW,337,0.0,1.0,60,0.00,,---,0.00,VWS V14.01,2013-08-04 21:46:00,
2013-08-04 16:47:00,70.8,56.7,30.03,NNW,344,0.0,0.0,61,0.00,,---,0.00,VWS V14.01,2013-08-04 21:47:00,
2013-08-04 16:48:00,70.6,56.5,30.03,NNW,344,0.0,1.0,61,0.00,,---,0.00,VWS V14.01,2013-08-04 21:48:00,
2013-08-04 16:49:00,70.6,57.0,30.03,NNW,344,0.0,0.0,62,0.00,,---,0.00,VWS V14.01,2013-08-04 21:49:00,
2013-08-04 16:50:00,70.8,57.2,30.03,North,358,2.0,2.0,62,0.00,,---,0.00,VWS V14.01,2013-08-04 21:50:00,
2013-08-04 16:51:00,70.8,56.7,30.03,North,358,0.0,0.0,61,0.00,,---,0.00,VWS V14.01,2013-08-04 21:51:00,
2013-08-04 16:53:00,70.8,57.2,30.03,North,358,1.0,1.0,62,0.00,,---,0.00,VWS V14.01,2013-08-04 21:53:00,
2013-08-04 16:54:00,70.8,56.7,30.03,North,358,0.0,2.0,61,0.00,,---,0.00,VWS V14.01,2013-08-04 21:54:00,
2013-08-04 16:57:00,70.8,56.7,30.03,NNE,13,0.0,1.0,61,0.00,,---,0.00,VWS V14.01,2013-08-04 21:57:00,
2013-08-04 16:58:00,70.8,57.2,30.03,NNE,12,2.0,2.0,62,0.00,,---,0.00,VWS V14.01,2013-08-04 21:58:00,
2013-08-04 17:02:00,70.8,56.2,30.03,NE,44,0.0,3.0,60,0.00,,---,0.00,VWS V14.01,2013-08-04 22:02:00,
2013-08-04 17:03:00,70.8,55.8,30.03,NE,37,0.0,0.0,59,0.00,,---,0.00,VWS V14.01,2013-08-04 22:03:00,
2013-08-04 17:05:00,70.6,55.6,30.03,East,79,0.0,1.0,59,0.00,,---,0.00,VWS V14.01,2013-08-04 22:05:00,
2013-08-04 17:08:00,70.6,55.6,30.03,NE,34,0.0,2.0,59,0.00,,---,0.00,VWS V14.01,2013-08-04 22:08:00,
2013-08-04 17:10:00,70.6,55.6,30.03,North,7,1.0,2.0,59,0.00,,---,0.00,VWS V14.01,2013-08-04 22:10:00,
2013-08-04 17:11:00,70.6,55.6,30.03,North,7,1.0,2.0,59,0.00,,---,0.00,VWS V14.01,2013-08-04 22:11:00,
2013-08-04 17:13:00,70.4,54.5,30.03,North,0,0.0,3.0,57,0.00,,---,0.00,VWS V14.01,2013-08-04 22:13:00,
2013-08-04 17:14:00,70.3,54.8,30.03,North,0,1.0,2.0,58,0.00,,---,0.00,VWS V14.01,2013-08-04 22:14:00,
2013-08-04 17:17:00,70.3,54.8,30.03,North,1,1.0,1.0,58,0.00,,---,0.00,VWS V14.01,2013-08-04 22:17:00,
2013-08-04 17:18:00,70.3,54.8,30.03,North,1,2.0,2.0,58,0.00,,---,0.00,VWS V14.01,2013-08-04 22:18:00,
2013-08-04 17:19:00,70.1,54.7,30.03,North,1,1.0,2.0,58,0.00,,---,0.00,VWS V14.01,2013-08-04 22:19:00,
2013-08-04 17:20:00,70.1,55.1,30.03,ENE,68,0.0,1.0,59,0.00,,---,0.00,VWS V14.01,2013-08-04 22:20:00,
2013-08-04 17:21:00,70.1,55.6,30.03,ENE,68,0.0,0.0,60,0.00,,---,0.00,VWS V14.01,2013-08-04 22:21:00,
2013-08-04 17:24:00,69.9,54.9,30.03,North,2,0.0,2.0,59,0.00,,---,0.00,VWS V14.01,2013-08-04 22:24:00,
2013-08-04 17:26:00,70.1,55.6,30.03,North,2,1.0,1.0,60,0.00,,---,0.00,VWS V14.01,2013-08-04 22:26:00,
2013-08-04 17:27:00,69.9,54.9,30.03,North,2,0.0,1.0,59,0.00,,---,0.00,VWS V14.01,2013-08-04 22:27:00,
2013-08-04 17:29:00,70.1,56.5,30.03,North,2,0.0,0.0,62,0.00,,---,0.00,VWS V14.01,2013-08-04 22:29:00,
2013-08-04 17:30:00,70.1,55.6,30.02,ENE,74,0.0,1.0,60,0.00,,---,0.00,VWS V14.01,2013-08-04 22:30:00,
2013-08-04 17:32:00,70.1,55.6,30.02,ENE,74,0.0,1.0,60,0.00,,---,0.00,VWS V14.01,2013-08-04 22:32:00,
2013-08-04 17:34:00,70.1,55.6,30.02,ENE,74,0.0,0.0,60,0.00,,---,0.00,VWS V14.01,2013-08-04 22:34:00,
2013-08-04 17:36:00,70.1,55.6,30.02,ENE,74,0.0,0.0,60,0.00,,---,0.00,VWS V14.01,2013-08-04 22:36:00,
2013-08-04 17:37:00,69.9,55.4,30.02,East,84,1.0,1.0,60,0.00,,---,0.00,VWS V14.01,2013-08-04 22:37:00,
2013-08-04 17:39:00,69.9,54.9,30.02,NNE,20,0.0,2.0,59,0.00,,---,0.00,VWS V14.01,2013-08-04 22:39:00,
2013-08-04 17:41:00,69.8,54.8,30.02,North,354,2.0,2.0,59,0.00,,---,0.00,VWS V14.01,2013-08-04 22:41:00,
2013-08-04 17:44:00,69.8,54.8,30.02,North,354,1.0,1.0,59,0.00,,---,0.00,VWS V14.01,2013-08-04 22:44:00,
2013-08-04 17:45:00,69.8,55.8,30.02,North,354,0.0,1.0,61,0.00,,---,0.00,VWS V14.01,2013-08-04 22:45:00,
2013-08-04 17:48:00,69.4,54.9,30.02,ENE,78,0.0,2.0,60,0.00,,---,0.00,VWS V14.01,2013-08-04 22:48:00,
2013-08-04 17:49:00,69.3,54.4,30.02,ENE,78,0.0,1.0,59,0.00,,---,0.00,VWS V14.01,2013-08-04 22:49:00,
2013-08-04 17:50:00,69.3,55.3,30.02,ENE,78,0.0,1.0,61,0.00,,---,0.00,VWS V14.01,2013-08-04 22:50:00,
2013-08-04 17:53:00,69.1,55.5,30.02,ENE,78,0.0,0.0,62,0.00,,---,0.00,VWS V14.01,2013-08-04 22:53:00,
2013-08-04 17:55:00,68.9,55.4,30.02,ENE,78,0.0,1.0,62,0.00,,---,0.00,VWS V14.01,2013-08-04 22:55:00,
2013-08-04 17:56:00,68.9,55.8,30.02,ENE,78,0.0,0.0,63,0.00,,---,0.00,VWS V14.01,2013-08-04 22:56:00,
2013-08-04 18:00:00,68.9,56.2,30.02,ENE,77,1.0,1.0,64,0.00,,---,0.00,VWS V14.01,2013-08-04 23:00:00,
2013-08-04 18:01:00,68.9,56.7,30.02,NNW,345,0.0,0.0,65,0.00,,---,0.00,VWS V14.01,2013-08-04 23:01:00,
2013-08-04 18:02:00,68.9,55.8,30.02,NNW,345,0.0,1.0,63,0.00,,---,0.00,VWS V14.01,2013-08-04 23:02:00,
2013-08-04 18:03:00,68.9,55.4,30.02,NNW,345,0.0,1.0,62,0.00,,---,0.00,VWS V14.01,2013-08-04 23:03:00,
2013-08-04 18:06:00,68.8,55.3,30.02,NNW,348,0.0,0.0,62,0.00,,---,0.00,VWS V14.01,2013-08-04 23:06:00,
2013-08-04 18:07:00,68.8,55.3,30.02,NNW,348,0.0,0.0,62,0.00,,---,0.00,VWS V14.01,2013-08-04 23:07:00,
2013-08-04 18:08:00,68.8,55.3,30.02,NNW,348,0.0,1.0,62,0.00,,---,0.00,VWS V14.01,2013-08-04 23:08:00,
2013-08-04 18:10:00,68.8,55.3,30.02,NNW,348,0.0,0.0,62,0.00,,---,0.00,VWS V14.01,2013-08-04 23:10:00,
2013-08-04 18:12:00,68.8,55.3,30.02,North,350,0.0,0.0,62,0.00,,---,0.00,VWS V14.01,2013-08-04 23:12:00,
2013-08-04 18:13:00,68.6,55.1,30.02,North,354,0.0,0.0,62,0.00,,---,0.00,VWS V14.01,2013-08-04 23:13:00,
2013-08-04 18:16:00,68.6,56.0,30.02,North,354,0.0,0.0,64,0.00,,---,0.00,VWS V14.01,2013-08-04 23:16:00,
2013-08-04 18:17:00,68.4,55.8,30.02,North,354,0.0,0.0,64,0.00,,---,0.00,VWS V14.01,2013-08-04 23:17:00,
2013-08-04 18:18:00,68.4,56.2,30.02,North,354,0.0,1.0,65,0.00,,---,0.00,VWS V14.01,2013-08-04 23:18:00,
2013-08-04 18:19:00,68.4,56.2,30.02,North,354,0.0,0.0,65,0.00,,---,0.00,VWS V14.01,2013-08-04 23:19:00,
2013-08-04 18:21:00,68.3,56.1,30.02,North,354,0.0,0.0,65,0.00,,---,0.00,VWS V14.01,2013-08-04 23:21:00,
2013-08-04 18:23:00,68.3,56.1,30.02,North,354,0.0,0.0,65,0.00,,---,0.00,VWS V14.01,2013-08-04 23:23:00,
2013-08-04 18:26:00,68.1,55.9,30.02,ESE,104,0.0,0.0,65,0.00,,---,0.00,VWS V14.01,2013-08-04 23:26:00,
2013-08-04 18:28:00,68.1,55.9,30.02,ESE,103,0.0,0.0,65,0.00,,---,0.00,VWS V14.01,2013-08-04 23:28:00,
2013-08-04 18:29:00,68.1,55.9,30.02,ESE,103,0.0,0.0,65,0.00,,---,0.00,VWS V14.01,2013-08-04 23:29:00,
2013-08-04 18:31:00,68.1,55.9,30.01,ESE,103,0.0,0.0,65,0.00,,---,0.00,VWS V14.01,2013-08-04 23:31:00,
2013-08-04 18:32:00,68.3,56.1,30.01,ESE,103,0.0,0.0,65,0.00,,---,0.00,VWS V14.01,2013-08-04 23:32:00,
2013-08-04 18:34:00,68.3,56.5,30.01,ESE,104,0.0,0.0,66,0.00,,---,0.00,VWS V14.01,2013-08-04 23:34:00,
2013-08-04 18:35:00,68.1,55.9,30.01,ESE,104,0.0,0.0,65,0.00,,---,0.00,VWS V14.01,2013-08-04 23:35:00,
2013-08-04 18:37:00,68.1,55.9,30.01,East,96,0.0,0.0,65,0.00,,---,0.00,VWS V14.01,2013-08-04 23:37:00,
2013-08-04 18:40:00,68.1,55.9,30.01,ENE,69,0.0,0.0,65,0.00,,---,0.00,VWS V14.01,2013-08-04 23:40:00,
2013-08-04 18:43:00,67.9,55.7,30.01,ENE,59,0.0,0.0,65,0.00,,---,0.00,VWS V14.01,2013-08-04 23:43:00,
2013-08-04 18:45:00,67.8,56.5,30.01,ENE,59,0.0,0.0,67,0.00,,---,0.00,VWS V14.01,2013-08-04 23:45:00,
2013-08-04 18:46:00,67.8,56.5,30.01,ENE,59,0.0,0.0,67,0.00,,---,0.00,VWS V14.01,2013-08-04 23:46:00,
2013-08-04 18:47:00,67.8,56.5,30.01,ENE,59,0.0,0.0,67,0.00,,---,0.00,VWS V14.01,2013-08-04 23:47:00,
2013-08-04 18:49:00,67.6,56.7,30.01,ENE,59,0.0,0.0,68,0.00,,---,0.00,VWS V14.01,2013-08-04 23:49:00,
2013-08-04 18:50:00,67.4,56.5,30.01,ENE,59,0.0,0.0,68,0.00,,---,0.00,VWS V14.01,2013-08-04 23:50:00,
2013-08-04 18:54:00,67.4,56.1,30.01,ENE,59,0.0,1.0,67,0.00,,---,0.00,VWS V14.01,2013-08-04 23:54:00,
2013-08-04 18:56:00,67.3,56.0,30.01,ENE,60,0.0,1.0,67,0.00,,---,0.00,VWS V14.01,2013-08-04 23:56:00,
2013-08-04 18:57:00,67.3,56.0,30.01,ENE,60,0.0,0.0,67,0.00,,---,0.00,VWS V14.01,2013-08-04 23:57:00,
2013-08-04 18:58:00,67.1,55.8,30.01,ENE,60,0.0,0.0,67,0.00,,---,0.00,VWS V14.01,2013-08-04 23:58:00,
2013-08-04 18:59:00,67.1,55.8,30.01,ENE,60,0.0,1.0,67,0.00,,---,0.00,VWS V14.01,2013-08-04 23:59:00,
2013-08-04 19:02:00,66.9,56.0,30.01,ENE,60,0.0,0.0,68,0.00,,---,0.00,VWS V14.01,2013-08-05 00:02:00,
2013-08-04 19:03:00,66.9,56.0,30.01,ENE,60,0.0,0.0,68,0.00,,---,0.00,VWS V14.01,2013-08-05 00:03:00,
2013-08-04 19:04:00,66.9,56.0,30.01,ENE,60,0.0,0.0,68,0.00,,---,0.00,VWS V14.01,2013-08-05 00:04:00,
2013-08-04 19:07:00,66.8,56.3,30.01,ENE,60,0.0,0.0,69,0.00,,---,0.00,VWS V14.01,2013-08-05 00:07:00,
2013-08-04 19:09:00,66.8,56.3,30.01,ENE,60,0.0,0.0,69,0.00,,---,0.00,VWS V14.01,2013-08-05 00:09:00,
2013-08-04 19:10:00,66.6,56.1,30.01,ENE,60,0.0,0.0,69,0.00,,---,0.00,VWS V14.01,2013-08-05 00:10:00,
2013-08-04 19:12:00,66.6,56.1,30.01,ENE,60,0.0,0.0,69,0.00,,---,0.00,VWS V14.01,2013-08-05 00:12:00,
2013-08-04 19:14:00,66.4,56.3,30.01,ENE,60,0.0,0.0,70,0.00,,---,0.00,VWS V14.01,2013-08-05 00:14:00,
2013-08-04 19:15:00,66.4,56.3,30.01,ENE,60,0.0,0.0,70,0.00,,---,0.00,VWS V14.01,2013-08-05 00:15:00,
2013-08-04 19:19:00,66.3,56.6,30.01,ENE,60,0.0,0.0,71,0.00,,---,0.00,VWS V14.01,2013-08-05 00:19:00,
2013-08-04 19:20:00,66.3,56.6,30.01,ENE,60,0.0,0.0,71,0.00,,---,0.00,VWS V14.01,2013-08-05 00:20:00,
2013-08-04 19:21:00,66.3,56.6,30.01,ENE,60,0.0,0.0,71,0.00,,---,0.00,VWS V14.01,2013-08-05 00:21:00,
2013-08-04 19:25:00,66.1,56.4,30.01,ENE,60,0.0,0.0,71,0.00,,---,0.00,VWS V14.01,2013-08-05 00:25:00,
2013-08-04 19:26:00,66.1,56.8,30.01,ENE,60,0.0,0.0,72,0.00,,---,0.00,VWS V14.01,2013-08-05 00:26:00,
2013-08-04 19:27:00,66.1,56.8,30.01,ENE,60,0.0,0.0,72,0.00,,---,0.00,VWS V14.01,2013-08-05 00:27:00,
2013-08-04 19:30:00,66.0,56.7,30.01,ENE,60,0.0,0.0,72,0.00,,---,0.00,VWS V14.01,2013-08-05 00:30:00,
2013-08-04 19:31:00,66.0,56.7,30.01,ENE,60,0.0,0.0,72,0.00,,---,0.00,VWS V14.01,2013-08-05 00:31:00,
2013-08-04 19:33:00,66.0,57.1,30.01,ENE,60,0.0,0.0,73,0.00,,---,0.00,VWS V14.01,2013-08-05 00:33:00,
2013-08-04 19:34:00,65.8,56.9,30.01,ENE,60,0.0,0.0,73,0.00,,---,0.00,VWS V14.01,2013-08-05 00:34:00,
2013-08-04 19:35:00,65.8,56.9,30.01,ENE,60,0.0,0.0,73,0.00,,---,0.00,VWS V14.01,2013-08-05 00:35:00,
2013-08-04 19:36:00,65.8,56.9,30.01,ENE,60,0.0,0.0,73,0.00,,---,0.00,VWS V14.01,2013-08-05 00:36:00,
2013-08-04 19:38:00,65.8,57.3,30.01,ENE,60,0.0,0.0,74,0.00,,---,0.00,VWS V14.01,2013-08-05 00:38:00,
2013-08-04 19:39:00,65.8,57.3,30.01,ENE,60,0.0,0.0,74,0.00,,---,0.00,VWS V14.01,2013-08-05 00:39:00,
2013-08-04 19:40:00,65.6,57.1,30.01,ENE,60,0.0,0.0,74,0.00,,---,0.00,VWS V14.01,2013-08-05 00:40:00,
2013-08-04 19:43:00,65.6,57.1,30.01,ENE,60,0.0,0.0,74,0.00,,---,0.00,VWS V14.01,2013-08-05 00:43:00,
2013-08-04 19:44:00,65.6,57.1,30.01,ENE,60,0.0,0.0,74,0.00,,---,0.00,VWS V14.01,2013-08-05 00:44:00,
2013-08-04 19:45:00,65.5,57.0,30.01,ENE,60,0.0,0.0,74,0.00,,---,0.00,VWS V14.01,2013-08-05 00:45:00,
2013-08-04 19:48:00,65.5,57.4,30.01,ENE,60,0.0,0.0,75,0.00,,---,0.00,VWS V14.01,2013-08-05 00:48:00,
2013-08-04 19:49:00,65.5,57.4,30.01,ENE,60,0.0,0.0,75,0.00,,---,0.00,VWS V14.01,2013-08-05 00:49:00,
2013-08-04 19:50:00,65.5,57.4,30.01,ENE,60,0.0,0.0,75,0.00,,---,0.00,VWS V14.01,2013-08-05 00:50:00,
2013-08-04 19:53:00,65.3,57.2,30.01,ENE,60,0.0,0.0,75,0.00,,---,0.00,VWS V14.01,2013-08-05 00:53:00,
2013-08-04 19:55:00,65.3,57.2,30.01,ENE,60,0.0,0.0,75,0.00,,---,0.00,VWS V14.01,2013-08-05 00:55:00,
2013-08-04 19:56:00,65.2,57.1,30.01,ENE,60,0.0,0.0,75,0.00,,---,0.00,VWS V14.01,2013-08-05 00:56:00,
2013-08-04 19:58:00,65.2,57.1,30.01,ENE,60,0.0,0.0,75,0.00,,---,0.00,VWS V14.01,2013-08-05 00:58:00,
2013-08-04 20:00:00,65.0,57.3,30.01,ENE,60,0.0,0.0,76,0.00,,---,0.00,VWS V14.01,2013-08-05 01:00:00,
2013-08-04 20:01:00,65.0,56.9,30.01,ENE,60,0.0,0.0,75,0.00,,---,0.00,VWS V14.01,2013-08-05 01:01:00,
2013-08-04 20:02:00,65.0,56.9,30.01,ENE,60,0.0,0.0,75,0.00,,---,0.00,VWS V14.01,2013-08-05 01:02:00,
2013-08-04 20:03:00,65.0,56.9,30.01,ENE,60,0.0,0.0,75,0.00,,---,0.00,VWS V14.01,2013-08-05 01:03:00,
2013-08-04 20:04:00,64.8,57.1,30.01,ENE,60,0.0,0.0,76,0.00,,---,0.00,VWS V14.01,2013-08-05 01:04:00,
2013-08-04 20:06:00,64.8,57.1,30.01,ENE,60,0.0,0.0,76,0.00,,---,0.00,VWS V14.01,2013-08-05 01:06:00,
2013-08-04 20:07:00,64.8,57.4,30.01,ENE,60,0.0,0.0,77,0.00,,---,0.00,VWS V14.01,2013-08-05 01:07:00,
2013-08-04 20:09:00,64.7,57.3,30.01,ENE,60,0.0,0.0,77,0.00,,---,0.00,VWS V14.01,2013-08-05 01:09:00,
2013-08-04 20:10:00,64.7,57.3,30.01,ENE,60,0.0,0.0,77,0.00,,---,0.00,VWS V14.01,2013-08-05 01:10:00,
2013-08-04 20:11:00,64.7,57.3,30.01,ENE,60,0.0,0.0,77,0.00,,---,0.00,VWS V14.01,2013-08-05 01:11:00,
2013-08-04 20:12:00,64.7,57.3,30.01,ENE,60,0.0,0.0,77,0.00,,---,0.00,VWS V14.01,2013-08-05 01:12:00,
2013-08-04 20:14:00,64.7,57.3,30.00,ENE,60,0.0,0.0,77,0.00,,---,0.00,VWS V14.01,2013-08-05 01:14:00,
2013-08-04 20:16:00,64.5,57.1,30.00,ENE,60,0.0,0.0,77,0.00,,---,0.00,VWS V14.01,2013-08-05 01:16:00,
2013-08-04 20:17:00,64.5,57.1,30.00,ENE,60,0.0,0.0,77,0.00,,---,0.00,VWS V14.01,2013-08-05 01:17:00,
2013-08-04 20:18:00,64.5,57.1,30.00,ENE,60,0.0,0.0,77,0.00,,---,0.00,VWS V14.01,2013-08-05 01:18:00,
2013-08-04 20:19:00,64.5,57.1,30.00,ENE,60,0.0,0.0,77,0.00,,---,0.00,VWS V14.01,2013-08-05 01:19:00,
2013-08-04 20:20:00,64.3,57.3,30.00,ENE,60,0.0,0.0,78,0.00,,---,0.00,VWS V14.01,2013-08-05 01:20:00,
2013-08-04 20:24:00,64.2,56.8,30.00,ENE,60,0.0,0.0,77,0.00,,---,0.00,VWS V14.01,2013-08-05 01:24:00,
2013-08-04 20:25:00,64.2,56.8,30.00,ENE,60,0.0,0.0,77,0.00,,---,0.00,VWS V14.01,2013-08-05 01:25:00,
2013-08-04 20:26:00,64.2,56.8,30.00,ENE,60,0.0,0.0,77,0.00,,---,0.00,VWS V14.01,2013-08-05 01:26:00,
2013-08-04 20:27:00,64.2,56.8,30.00,ENE,60,0.0,0.0,77,0.00,,---,0.00,VWS V14.01,2013-08-05 01:27:00,
2013-08-04 20:29:00,64.0,56.7,30.00,ENE,60,0.0,0.0,77,0.00,,---,0.00,VWS V14.01,2013-08-05 01:29:00,
2013-08-04 20:30:00,64.0,56.7,30.00,ENE,60,0.0,0.0,77,0.00,,---,0.00,VWS V14.01,2013-08-05 01:30:00,
2013-08-04 20:31:00,63.9,56.6,30.00,ENE,60,0.0,0.0,77,0.00,,---,0.00,VWS V14.01,2013-08-05 01:31:00,
2013-08-04 20:32:00,63.9,56.6,30.00,ENE,60,0.0,0.0,77,0.00,,---,0.00,VWS V14.01,2013-08-05 01:32:00,
2013-08-04 20:35:00,63.9,56.6,30.00,ENE,60,0.0,0.0,77,0.00,,---,0.00,VWS V14.01,2013-08-05 01:35:00,
2013-08-04 20:36:00,63.9,56.6,30.00,ENE,60,0.0,0.0,77,0.00,,---,0.00,VWS V14.01,2013-08-05 01:36:00,
2013-08-04 20:37:00,63.9,56.6,30.00,ENE,60,0.0,0.0,77,0.00,,---,0.00,VWS V14.01,2013-08-05 01:37:00,
2013-08-04 20:38:00,63.7,56.4,30.00,ENE,60,0.0,0.0,77,0.00,,---,0.00,VWS V14.01,2013-08-05 01:38:00,
2013-08-04 20:41:00,63.7,56.4,30.00,ENE,60,0.0,0.0,77,0.00,,---,0.00,VWS V14.01,2013-08-05 01:41:00,
2013-08-04 20:43:00,63.7,56.4,30.00,NE,36,0.0,2.0,77,0.00,,---,0.00,VWS V14.01,2013-08-05 01:43:00,
2013-08-04 20:45:00,63.5,56.2,30.00,NE,36,0.0,0.0,77,0.00,,---,0.00,VWS V14.01,2013-08-05 01:45:00,
2013-08-04 20:46:00,63.5,56.2,30.00,NE,36,0.0,0.0,77,0.00,,---,0.00,VWS V14.01,2013-08-05 01:46:00,
2013-08-04 20:48:00,63.5,56.2,30.00,NE,36,0.0,0.0,77,0.00,,---,0.00,VWS V14.01,2013-08-05 01:48:00,
2013-08-04 20:50:00,63.5,56.2,30.00,NE,36,0.0,0.0,77,0.00,,---,0.00,VWS V14.01,2013-08-05 01:50:00,
2013-08-04 20:52:00,63.5,56.2,30.00,NE,36,0.0,0.0,77,0.00,,---,0.00,VWS V14.01,2013-08-05 01:52:00,
2013-08-04 20:53:00,63.4,56.1,30.00,NE,36,0.0,0.0,77,0.00,,---,0.00,VWS V14.01,2013-08-05 01:53:00,
2013-08-04 20:56:00,63.4,56.1,30.00,NE,36,0.0,0.0,77,0.00,,---,0.00,VWS V14.01,2013-08-05 01:56:00,
2013-08-04 20:58:00,63.4,56.1,30.00,NE,36,0.0,0.0,77,0.00,,---,0.00,VWS V14.01,2013-08-05 01:58:00,
2013-08-04 20:59:00,63.4,56.1,30.01,NE,36,0.0,0.0,77,0.00,,---,0.00,VWS V14.01,2013-08-05 01:59:00,
2013-08-04 21:02:00,63.4,56.1,30.01,NE,36,0.0,0.0,77,0.00,,---,0.00,VWS V14.01,2013-08-05 02:02:00,
2013-08-04 21:03:00,63.4,56.1,30.01,NE,36,0.0,0.0,77,0.00,,---,0.00,VWS V14.01,2013-08-05 02:03:00,
2013-08-04 21:06:00,63.2,56.2,30.01,NE,36,0.0,0.0,78,0.00,,---,0.00,VWS V14.01,2013-08-05 02:06:00,
2013-08-04 21:08:00,63.2,56.2,30.01,NE,36,0.0,0.0,78,0.00,,---,0.00,VWS V14.01,2013-08-05 02:08:00,
2013-08-04 21:09:00,63.2,56.2,30.01,NE,36,0.0,0.0,78,0.00,,---,0.00,VWS V14.01,2013-08-05 02:09:00,
2013-08-04 21:12:00,63.1,56.5,30.01,NE,36,0.0,0.0,79,0.00,,---,0.00,VWS V14.01,2013-08-05 02:12:00,
2013-08-04 21:14:00,63.1,56.5,30.00,NE,36,0.0,0.0,79,0.00,,---,0.00,VWS V14.01,2013-08-05 02:14:00,
2013-08-04 21:17:00,63.1,56.5,30.00,NE,36,0.0,0.0,79,0.00,,---,0.00,VWS V14.01,2013-08-05 02:17:00,
2013-08-04 21:18:00,63.1,56.8,30.00,NE,36,0.0,0.0,80,0.00,,---,0.00,VWS V14.01,2013-08-05 02:18:00,
2013-08-04 21:19:00,62.9,56.6,30.00,NE,36,0.0,0.0,80,0.00,,---,0.00,VWS V14.01,2013-08-05 02:19:00,
2013-08-04 21:21:00,62.9,56.3,30.00,NE,36,0.0,0.0,79,0.00,,---,0.00,VWS V14.01,2013-08-05 02:21:00,
2013-08-04 21:22:00,62.9,56.3,30.00,NE,36,0.0,0.0,79,0.00,,---,0.00,VWS V14.01,2013-08-05 02:22:00,
2013-08-04 21:24:00,62.7,56.1,30.00,NE,36,0.0,0.0,79,0.00,,---,0.00,VWS V14.01,2013-08-05 02:24:00,
2013-08-04 21:27:00,62.7,56.5,30.00,NE,36,0.0,0.0,80,0.00,,---,0.00,VWS V14.01,2013-08-05 02:27:00,
2013-08-04 21:29:00,62.7,56.5,30.00,NE,36,0.0,0.0,80,0.00,,---,0.00,VWS V14.01,2013-08-05 02:29:00,
2013-08-04 21:31:00,62.7,56.5,30.00,NE,36,0.0,0.0,80,0.00,,---,0.00,VWS V14.01,2013-08-05 02:31:00,
2013-08-04 21:35:00,62.7,56.5,30.00,NE,36,0.0,0.0,80,0.00,,---,0.00,VWS V14.01,2013-08-05 02:35:00,
2013-08-04 21:38:00,62.7,56.8,30.00,NE,36,0.0,0.0,81,0.00,,---,0.00,VWS V14.01,2013-08-05 02:38:00,
2013-08-04 21:39:00,62.7,56.8,30.00,NE,36,0.0,0.0,81,0.00,,---,0.00,VWS V14.01,2013-08-05 02:39:00,
2013-08-04 21:40:00,62.7,56.5,30.00,NE,36,0.0,0.0,80,0.00,,---,0.00,VWS V14.01,2013-08-05 02:40:00,
2013-08-04 21:41:00,62.6,56.3,30.00,NE,36,0.0,0.0,80,0.00,,---,0.00,VWS V14.01,2013-08-05 02:41:00,
2013-08-04 21:43:00,62.6,56.3,30.00,NE,36,0.0,0.0,80,0.00,,---,0.00,VWS V14.01,2013-08-05 02:43:00,
2013-08-04 21:44:00,62.6,56.3,30.00,NE,36,0.0,0.0,80,0.00,,---,0.00,VWS V14.01,2013-08-05 02:44:00,
2013-08-04 21:47:00,62.6,56.7,30.00,NE,36,0.0,0.0,81,0.00,,---,0.00,VWS V14.01,2013-08-05 02:47:00,
2013-08-04 21:48:00,62.6,56.7,30.00,NE,36,0.0,0.0,81,0.00,,---,0.00,VWS V14.01,2013-08-05 02:48:00,
2013-08-04 21:52:00,62.4,56.5,30.00,NE,36,0.0,0.0,81,0.00,,---,0.00,VWS V14.01,2013-08-05 02:52:00,
2013-08-04 21:53:00,62.4,56.5,30.00,NE,36,0.0,0.0,81,0.00,,---,0.00,VWS V14.01,2013-08-05 02:53:00,
2013-08-04 21:54:00,62.4,56.5,30.00,NE,36,0.0,0.0,81,0.00,,---,0.00,VWS V14.01,2013-08-05 02:54:00,
2013-08-04 21:56:00,62.4,56.5,30.00,NE,36,0.0,0.0,81,0.00,,---,0.00,VWS V14.01,2013-08-05 02:56:00,
2013-08-04 21:58:00,62.4,56.5,30.00,NE,36,0.0,0.0,81,0.00,,---,0.00,VWS V14.01,2013-08-05 02:58:00,
2013-08-04 22:00:00,62.4,56.5,29.99,NE,36,0.0,0.0,81,0.00,,---,0.00,VWS V14.01,2013-08-05 03:00:00,
2013-08-04 22:02:00,62.4,56.5,29.99,NE,36,0.0,0.0,81,0.00,,---,0.00,VWS V14.01,2013-08-05 03:02:00,
2013-08-04 22:03:00,62.4,56.5,29.99,NE,36,0.0,0.0,81,0.00,,---,0.00,VWS V14.01,2013-08-05 03:03:00,
2013-08-04 22:06:00,62.3,56.4,29.99,NE,36,0.0,0.0,81,0.00,,---,0.00,VWS V14.01,2013-08-05 03:06:00,
2013-08-04 22:07:00,62.3,56.4,29.99,NE,36,0.0,0.0,81,0.00,,---,0.00,VWS V14.01,2013-08-05 03:07:00,
2013-08-04 22:08:00,62.3,56.4,29.99,NE,36,0.0,0.0,81,0.00,,---,0.00,VWS V14.01,2013-08-05 03:08:00,
2013-08-04 22:09:00,62.3,56.4,29.99,NE,36,0.0,0.0,81,0.00,,---,0.00,VWS V14.01,2013-08-05 03:09:00,
2013-08-04 22:11:00,62.3,56.7,29.99,NE,36,0.0,0.0,82,0.00,,---,0.00,VWS V14.01,2013-08-05 03:11:00,
2013-08-04 22:12:00,62.3,56.7,29.99,NE,36,0.0,0.0,82,0.00,,---,0.00,VWS V14.01,2013-08-05 03:12:00,
2013-08-04 22:13:00,62.3,56.7,29.99,NE,36,0.0,0.0,82,0.00,,---,0.00,VWS V14.01,2013-08-05 03:13:00,
2013-08-04 22:14:00,62.3,56.7,29.99,NE,36,0.0,0.0,82,0.00,,---,0.00,VWS V14.01,2013-08-05 03:14:00,
2013-08-04 22:16:00,62.3,56.7,29.99,NE,36,0.0,0.0,82,0.00,,---,0.00,VWS V14.01,2013-08-05 03:16:00,
2013-08-04 22:18:00,62.3,56.7,29.99,NE,36,0.0,0.0,82,0.00,,---,0.00,VWS V14.01,2013-08-05 03:18:00,
2013-08-04 22:19:00,62.1,56.5,29.99,NE,36,0.0,0.0,82,0.00,,---,0.00,VWS V14.01,2013-08-05 03:19:00,
2013-08-04 22:20:00,62.1,56.2,29.99,NE,36,0.0,0.0,81,0.00,,---,0.00,VWS V14.01,2013-08-05 03:20:00,
2013-08-04 22:21:00,62.1,56.2,29.99,NE,36,0.0,0.0,81,0.00,,---,0.00,VWS V14.01,2013-08-05 03:21:00,
2013-08-04 22:24:00,62.1,56.2,29.99,NE,36,0.0,0.0,81,0.00,,---,0.00,VWS V14.01,2013-08-05 03:24:00,
2013-08-04 22:25:00,62.1,56.2,29.99,NE,36,0.0,0.0,81,0.00,,---,0.00,VWS V14.01,2013-08-05 03:25:00,
2013-08-04 22:26:00,62.1,56.2,29.99,NE,36,0.0,0.0,81,0.00,,---,0.00,VWS V14.01,2013-08-05 03:26:00,
2013-08-04 22:29:00,62.1,56.2,29.99,NE,36,0.0,0.0,81,0.00,,---,0.00,VWS V14.01,2013-08-05 03:29:00,
2013-08-04 22:31:00,62.1,56.2,29.99,NE,36,0.0,0.0,81,0.00,,---,0.00,VWS V14.01,2013-08-05 03:31:00,
2013-08-04 22:33:00,62.1,56.2,29.99,NE,36,0.0,0.0,81,0.00,,---,0.00,VWS V14.01,2013-08-05 03:33:00,
2013-08-04 22:36:00,62.1,56.2,29.99,NE,36,0.0,0.0,81,0.00,,---,0.00,VWS V14.01,2013-08-05 03:36:00,
2013-08-04 22:37:00,62.1,56.2,29.99,NE,36,0.0,0.0,81,0.00,,---,0.00,VWS V14.01,2013-08-05 03:37:00,
2013-08-04 22:39:00,62.1,56.2,29.99,NE,36,0.0,0.0,81,0.00,,---,0.00,VWS V14.01,2013-08-05 03:39:00,
2013-08-04 22:41:00,62.1,56.2,29.99,NE,36,0.0,0.0,81,0.00,,---,0.00,VWS V14.01,2013-08-05 03:41:00,
2013-08-04 22:43:00,62.1,56.2,29.99,NE,36,0.0,0.0,81,0.00,,---,0.00,VWS V14.01,2013-08-05 03:43:00,
2013-08-04 22:45:00,62.1,56.2,29.99,NE,36,0.0,0.0,81,0.00,,---,0.00,VWS V14.01,2013-08-05 03:45:00,
2013-08-04 22:47:00,62.0,56.5,29.99,NE,36,0.0,0.0,82,0.00,,---,0.00,VWS V14.01,2013-08-05 03:47:00,
2013-08-04 22:49:00,62.0,56.5,29.99,NE,36,0.0,0.0,82,0.00,,---,0.00,VWS V14.01,2013-08-05 03:49:00,
2013-08-04 22:51:00,62.0,56.5,29.99,NE,36,0.0,0.0,82,0.00,,---,0.00,VWS V14.01,2013-08-05 03:51:00,
2013-08-04 22:53:00,62.0,56.5,29.99,NE,36,0.0,0.0,82,0.00,,---,0.00,VWS V14.01,2013-08-05 03:53:00,
2013-08-04 22:55:00,62.0,56.5,29.99,NE,36,0.0,0.0,82,0.00,,---,0.00,VWS V14.01,2013-08-05 03:55:00,
2013-08-04 22:57:00,62.0,56.5,29.99,NE,36,0.0,0.0,82,0.00,,---,0.00,VWS V14.01,2013-08-05 03:57:00,
2013-08-04 22:58:00,61.8,56.2,29.99,NE,36,0.0,0.0,82,0.00,,---,0.00,VWS V14.01,2013-08-05 03:58:00,
2013-08-04 22:59:00,61.8,56.2,29.99,NE,36,0.0,0.0,82,0.00,,---,0.00,VWS V14.01,2013-08-05 03:59:00,
2013-08-04 23:00:00,61.8,56.2,29.99,NE,36,0.0,0.0,82,0.00,,---,0.00,VWS V14.01,2013-08-05 04:00:00,
2013-08-04 23:01:00,61.8,56.2,29.99,NE,36,0.0,0.0,82,0.00,,---,0.00,VWS V14.01,2013-08-05 04:01:00,
2013-08-04 23:02:00,61.8,56.2,29.99,NE,36,0.0,0.0,82,0.00,,---,0.00,VWS V14.01,2013-08-05 04:02:00,
2013-08-04 23:03:00,61.8,56.2,29.99,NE,36,0.0,0.0,82,0.00,,---,0.00,VWS V14.01,2013-08-05 04:03:00,
2013-08-04 23:05:00,61.8,56.6,29.99,NE,36,0.0,0.0,83,0.00,,---,0.00,VWS V14.01,2013-08-05 04:05:00,
2013-08-04 23:07:00,61.8,56.6,29.99,NE,36,0.0,0.0,83,0.00,,---,0.00,VWS V14.01,2013-08-05 04:07:00,
2013-08-04 23:08:00,61.8,56.6,29.99,NE,36,0.0,0.0,83,0.00,,---,0.00,VWS V14.01,2013-08-05 04:08:00,
2013-08-04 23:09:00,61.6,56.4,29.99,NE,36,0.0,0.0,83,0.00,,---,0.00,VWS V14.01,2013-08-05 04:09:00,
2013-08-04 23:11:00,61.6,56.4,29.99,NE,36,0.0,0.0,83,0.00,,---,0.00,VWS V14.01,2013-08-05 04:11:00,
2013-08-04 23:13:00,61.6,56.4,29.99,NE,36,0.0,0.0,83,0.00,,---,0.00,VWS V14.01,2013-08-05 04:13:00,
2013-08-04 23:14:00,61.6,56.4,29.99,NE,36,0.0,0.0,83,0.00,,---,0.00,VWS V14.01,2013-08-05 04:14:00,
2013-08-04 23:15:00,61.6,56.4,29.99,NE,36,0.0,0.0,83,0.00,,---,0.00,VWS V14.01,2013-08-05 04:15:00,
2013-08-04 23:16:00,61.6,56.4,29.99,NE,36,0.0,0.0,83,0.00,,---,0.00,VWS V14.01,2013-08-05 04:16:00,
2013-08-04 23:19:00,61.5,56.3,29.99,NE,36,0.0,0.0,83,0.00,,---,0.00,VWS V14.01,2013-08-05 04:19:00,
2013-08-04 23:20:00,61.5,56.3,29.99,NE,36,0.0,0.0,83,0.00,,---,0.00,VWS V14.01,2013-08-05 04:20:00,
2013-08-04 23:21:00,61.5,56.3,29.99,NE,36,0.0,0.0,83,0.00,,---,0.00,VWS V14.01,2013-08-05 04:21:00,
2013-08-04 23:22:00,61.5,56.3,29.99,NE,36,0.0,0.0,83,0.00,,---,0.00,VWS V14.01,2013-08-05 04:22:00,
2013-08-04 23:25:00,61.3,56.1,29.99,NE,36,0.0,0.0,83,0.00,,---,0.00,VWS V14.01,2013-08-05 04:25:00,
2013-08-04 23:26:00,61.3,56.1,29.99,NE,36,0.0,0.0,83,0.00,,---,0.00,VWS V14.01,2013-08-05 04:26:00,
2013-08-04 23:27:00,61.3,56.1,29.99,NE,36,0.0,0.0,83,0.00,,---,0.00,VWS V14.01,2013-08-05 04:27:00,
2013-08-04 23:28:00,61.2,56.0,29.99,NE,36,0.0,0.0,83,0.00,,---,0.00,VWS V14.01,2013-08-05 04:28:00,
2013-08-04 23:30:00,61.2,56.0,30.00,NE,36,0.0,0.0,83,0.00,,---,0.00,VWS V14.01,2013-08-05 04:30:00,
2013-08-04 23:32:00,61.2,56.3,30.00,NE,36,0.0,0.0,84,0.00,,---,0.00,VWS V14.01,2013-08-05 04:32:00,
2013-08-04 23:33:00,61.2,56.3,30.00,NE,36,0.0,0.0,84,0.00,,---,0.00,VWS V14.01,2013-08-05 04:33:00,
2013-08-04 23:35:00,61.0,56.1,30.00,NE,36,0.0,0.0,84,0.00,,---,0.00,VWS V14.01,2013-08-05 04:35:00,
2013-08-04 23:36:00,61.0,56.1,30.00,NE,36,0.0,0.0,84,0.00,,---,0.00,VWS V14.01,2013-08-05 04:36:00,
2013-08-04 23:39:00,60.9,56.0,30.00,NE,36,0.0,0.0,84,0.00,,---,0.00,VWS V14.01,2013-08-05 04:39:00,
2013-08-04 23:40:00,60.9,56.0,30.00,NE,36,0.0,0.0,84,0.00,,---,0.00,VWS V14.01,2013-08-05 04:40:00,
2013-08-04 23:41:00,60.9,56.0,30.00,NE,36,0.0,0.0,84,0.00,,---,0.00,VWS V14.01,2013-08-05 04:41:00,
2013-08-04 23:42:00,60.9,56.0,30.00,NE,36,0.0,0.0,84,0.00,,---,0.00,VWS V14.01,2013-08-05 04:42:00,
2013-08-04 23:44:00,60.7,55.8,30.00,NE,36,0.0,0.0,84,0.00,,---,0.00,VWS V14.01,2013-08-05 04:44:00,
2013-08-04 23:45:00,60.7,55.8,30.00,NE,36,0.0,0.0,84,0.00,,---,0.00,VWS V14.01,2013-08-05 04:45:00,
2013-08-04 23:47:00,60.7,56.2,30.00,NE,36,0.0,0.0,85,0.00,,---,0.00,VWS V14.01,2013-08-05 04:47:00,
2013-08-04 23:48:00,60.7,56.2,30.00,NE,36,0.0,0.0,85,0.00,,---,0.00,VWS V14.01,2013-08-05 04:48:00,
2013-08-04 23:50:00,60.5,56.0,30.00,NE,36,0.0,0.0,85,0.00,,---,0.00,VWS V14.01,2013-08-05 04:50:00,
2013-08-04 23:51:00,60.5,56.0,30.00,NE,36,0.0,0.0,85,0.00,,---,0.00,VWS V14.01,2013-08-05 04:51:00,
2013-08-04 23:52:00,60.5,56.0,30.00,NE,36,0.0,0.0,85,0.00,,---,0.00,VWS V14.01,2013-08-05 04:52:00,
2013-08-04 23:54:00,60.4,55.9,30.00,NE,36,0.0,0.0,85,0.00,,---,0.00,VWS V14.01,2013-08-05 04:54:00,
2013-08-04 23:55:00,60.4,55.9,30.00,NE,36,0.0,0.0,85,0.00,,---,0.00,VWS V14.01,2013-08-05 04:55:00,
2013-08-04 23:56:00,60.4,55.9,30.00,NE,36,0.0,0.0,85,0.00,,---,0.00,VWS V14.01,2013-08-05 04:56:00,
2013-08-04 23:57:00,60.4,55.9,30.00,NE,36,0.0,0.0,85,0.00,,---,0.00,VWS V14.01,2013-08-05 04:57:00,